Observation data for Stinnett on 09/25/2020      Previous  Date  Next       Current Mesonet Observations  Soil Data  Daily Summary Page  Observations in Plain Language
KST3 250500Z 20009KT 21/08 A2995 RMK A01 T02130082  RH  043%=      5-min Rain = 0
KST3 250501Z 20009KT 21/08 A2995 RMK A01 T02130082  RH  043%=      5-min Rain = 0
KST3 250502Z 20009KT 21/08 A2995 RMK A01 T02130082  RH  043%=      5-min Rain = 0
KST3 250503Z 20009KT 21/08 A2995 RMK A01 T02130082  RH  043%=      5-min Rain = 0
KST3 250504Z 20008KT 21/08 A2995 RMK A01 T02140082  RH  043%=      5-min Rain = 0
KST3 250505Z 20008KT 21/08 A2995 RMK A01 T02140082  RH  043%=      5-min Rain = 0
KST3 250506Z 20008KT 21/08 A2995 RMK A01 T02140081  RH  043%=      5-min Rain = 0
KST3 250507Z 21007KT 21/08 A2995 RMK A01 T02140082  RH  043%=      5-min Rain = 0
KST3 250508Z 21007KT 21/08 A2995 RMK A01 T02090080  RH  043%=      5-min Rain = 0
KST3 250509Z 22007KT 20/08 A2995 RMK A01 T02040079  RH  045%=      5-min Rain = 0
KST3 250510Z 22008KT 20/08 A2995 RMK A01 T02000079  RH  045%=      5-min Rain = 0
KST3 250511Z 22009KT 20/08 A2995 RMK A01 T01980079  RH  046%=      5-min Rain = 0
KST3 250512Z 21009KT 20/08 A2995 RMK A01 T01970079  RH  047%=      5-min Rain = 0
KST3 250513Z 21010KT 20/08 A2995 RMK A01 T01960079  RH  047%=      5-min Rain = 0
KST3 250514Z 21009KT 20/08 A2995 RMK A01 T01960079  RH  047%=      5-min Rain = 0
KST3 250515Z 21010KT 20/08 A2995 RMK A01 T01960080  RH  047%=      5-min Rain = 0
KST3 250516Z 21010KT 20/08 A2995 RMK A01 T01960079  RH  047%=      5-min Rain = 0
KST3 250517Z 20010KT 20/08 A2995 RMK A01 T01970080  RH  047%=      5-min Rain = 0
KST3 250518Z 20010KT 20/08 A2995 RMK A01 T01980080  RH  046%=      5-min Rain = 0
KST3 250519Z 20010KT 20/08 A2995 RMK A01 T02000080  RH  046%=      5-min Rain = 0
KST3 250520Z 20010KT 20/08 A2995 RMK A01 T02010080  RH  046%=      5-min Rain = 0
KST3 250521Z 21009KT 20/08 A2995 RMK A01 T02010080  RH  045%=      5-min Rain = 0
KST3 250522Z 21009KT 20/08 A2995 RMK A01 T02000079  RH  046%=      5-min Rain = 0
KST3 250523Z 20009KT 20/08 A2995 RMK A01 T01980079  RH  046%=      5-min Rain = 0
KST3 250524Z 20010KT 20/08 A2995 RMK A01 T01970079  RH  047%=      5-min Rain = 0
KST3 250525Z 20010KT 20/08 A2995 RMK A01 T01970079  RH  047%=      5-min Rain = 0
KST3 250526Z 21009KT 20/08 A2995 RMK A01 T01970079  RH  046%=      5-min Rain = 0
KST3 250527Z 21009KT 20/08 A2995 RMK A01 T01970079  RH  046%=      5-min Rain = 0
KST3 250528Z 22008KT 20/08 A2995 RMK A01 T01960079  RH  047%=      5-min Rain = 0
KST3 250529Z 22008KT 20/08 A2995 RMK A01 T01950079  RH  047%=      5-min Rain = 0
KST3 250530Z 22008KT 19/08 A2995 RMK A01 T01940079  RH  047%=      5-min Rain = 0
KST3 250531Z 23008KT 19/08 A2995 RMK A01 T01940078  RH  047%=      5-min Rain = 0
KST3 250532Z 22008KT 19/08 A2995 RMK A01 T01940078  RH  047%=      5-min Rain = 0
KST3 250533Z 22009KT 19/08 A2995 RMK A01 T01940078  RH  047%=      5-min Rain = 0
KST3 250534Z 21009KT 19/08 A2995 RMK A01 T01940078  RH  047%=      5-min Rain = 0
KST3 250535Z 21009KT 19/08 A2995 RMK A01 T01940078  RH  047%=      5-min Rain = 0
KST3 250536Z 21009KT 19/08 A2995 RMK A01 T01940077  RH  047%=      5-min Rain = 0
KST3 250537Z 21009KT 20/08 A2995 RMK A01 T01960077  RH  046%=      5-min Rain = 0
KST3 250538Z 21009KT 20/08 A2995 RMK A01 T01970077  RH  046%=      5-min Rain = 0
KST3 250539Z 21009KT 20/08 A2995 RMK A01 T01970077  RH  046%=      5-min Rain = 0
KST3 250540Z 21009KT 20/08 A2995 RMK A01 T01970077  RH  046%=      5-min Rain = 0
KST3 250541Z 21009KT 20/08 A2995 RMK A01 T01950076  RH  046%=      5-min Rain = 0
KST3 250542Z 21009KT 19/08 A2995 RMK A01 T01940076  RH  046%=      5-min Rain = 0
KST3 250543Z 21009KT 19/08 A2995 RMK A01 T01930076  RH  046%=      5-min Rain = 0
KST3 250544Z 22008KT 19/08 A2995 RMK A01 T01920076  RH  047%=      5-min Rain = 0
KST3 250545Z 23008KT 19/08 A2995 RMK A01 T01910075  RH  047%=      5-min Rain = 0
KST3 250546Z 22008KT 19/08 A2995 RMK A01 T01900075  RH  047%=      5-min Rain = 0
KST3 250547Z 22009KT 19/07 A2995 RMK A01 T01900074  RH  047%=      5-min Rain = 0
KST3 250548Z 22009KT 19/07 A2995 RMK A01 T01900074  RH  047%=      5-min Rain = 0
KST3 250549Z 22010KT 19/07 A2995 RMK A01 T01900074  RH  047%=      5-min Rain = 0
KST3 250550Z 22010KT 19/07 A2995 RMK A01 T01900074  RH  047%=      5-min Rain = 0
KST3 250551Z 22010KT 19/07 A2995 RMK A01 T01900074  RH  047%=      5-min Rain = 0
KST3 250552Z 22010KT 19/07 A2995 RMK A01 T01900074  RH  047%=      5-min Rain = 0
KST3 250553Z 22010KT 19/07 A2995 RMK A01 T01900073  RH  047%=      5-min Rain = 0
KST3 250554Z 22010KT 19/07 A2995 RMK A01 T01900073  RH  047%=      5-min Rain = 0
KST3 250555Z 22009KT 19/07 A2995 RMK A01 T01900073  RH  047%=      5-min Rain = 0
KST3 250556Z 22010KT 19/07 A2995 RMK A01 T01890073  RH  047%=      5-min Rain = 0
KST3 250557Z 21010KT 19/07 A2995 RMK A01 T01890072  RH  047%=      5-min Rain = 0
KST3 250558Z 21011KT 19/07 A2995 RMK A01 T01890072  RH  046%=      5-min Rain = 0
KST3 250559Z 21011KT 19/07 A2995 RMK A01 T01890072  RH  046%=      5-min Rain = 0
KST3 250600Z 21011KT 19/07 A2995 RMK A01 T01890071  RH  046%=      5-min Rain = 0
KST3 250601Z 21011KT 19/07 A2995 RMK A01 T01920070  RH  045%=      5-min Rain = 0
KST3 250602Z 21011KT 20/07 A2995 RMK A01 T01950069  RH  044%=      5-min Rain = 0
KST3 250603Z 21012KT 20/07 A2995 RMK A01 T01980069  RH  043%=      5-min Rain = 0
KST3 250604Z 22012KT 20/07 A2995 RMK A01 T02000067  RH  042%=      5-min Rain = 0
KST3 250605Z 21012KT 20/07 A2995 RMK A01 T02020066  RH  041%=      5-min Rain = 0
KST3 250606Z 21012KT 21/06 A2995 RMK A01 T02050063  RH  040%=      5-min Rain = 0
KST3 250607Z 21012KT 21/06 A2995 RMK A01 T02080063  RH  039%=      5-min Rain = 0
KST3 250608Z 21011KT 21/06 A2995 RMK A01 T02100061  RH  038%=      5-min Rain = 0
KST3 250609Z 21012KT 21/06 A2995 RMK A01 T02100060  RH  038%=      5-min Rain = 0
KST3 250610Z 21011KT 21/06 A2995 RMK A01 T02110059  RH  037%=      5-min Rain = 0
KST3 250611Z 21010KT 21/06 A2995 RMK A01 T02110059  RH  037%=      5-min Rain = 0
KST3 250612Z 21011KT 21/06 A2995 RMK A01 T02110059  RH  037%=      5-min Rain = 0
KST3 250613Z 21010KT 21/06 A2995 RMK A01 T02100058  RH  037%=      5-min Rain = 0
KST3 250614Z 21010KT 21/06 A2995 RMK A01 T02090058  RH  037%=      5-min Rain = 0
KST3 250615Z 21010KT 21/06 A2995 RMK A01 T02080058  RH  037%=      5-min Rain = 0
KST3 250616Z 21010KT 21/06 A2995 RMK A01 T02070058  RH  038%=      5-min Rain = 0
KST3 250617Z 21010KT 21/06 A2995 RMK A01 T02060057  RH  038%=      5-min Rain = 0
KST3 250618Z 21010KT 21/06 A2995 RMK A01 T02050058  RH  038%=      5-min Rain = 0
KST3 250619Z 21010KT 20/06 A2995 RMK A01 T02040057  RH  038%=      5-min Rain = 0
KST3 250620Z 21010KT 20/06 A2995 RMK A01 T02020057  RH  039%=      5-min Rain = 0
KST3 250621Z 21010KT 20/06 A2995 RMK A01 T02010057  RH  039%=      5-min Rain = 0
KST3 250622Z 21010KT 20/06 A2995 RMK A01 T02010057  RH  039%=      5-min Rain = 0
KST3 250623Z 21010KT 20/06 A2995 RMK A01 T02000058  RH  039%=      5-min Rain = 0
KST3 250624Z 22010KT 20/06 A2995 RMK A01 T01990057  RH  039%=      5-min Rain = 0
KST3 250625Z 22010KT 20/06 A2995 RMK A01 T01980057  RH  040%=      5-min Rain = 0
KST3 250626Z 22010KT 20/06 A2995 RMK A01 T01980057  RH  040%=      5-min Rain = 0
KST3 250627Z 22010KT 20/06 A2995 RMK A01 T01970057  RH  040%=      5-min Rain = 0
KST3 250628Z 22010KT 20/06 A2995 RMK A01 T01960057  RH  040%=      5-min Rain = 0
KST3 250629Z 22010KT 20/06 A2995 RMK A01 T01960057  RH  040%=      5-min Rain = 0
KST3 250630Z 22010KT 20/06 A2995 RMK A01 T01960057  RH  040%=      5-min Rain = 0
KST3 250631Z 22010KT 20/06 A2995 RMK A01 T01960057  RH  040%=      5-min Rain = 0
KST3 250632Z 22010KT 20/06 A2995 RMK A01 T01950056  RH  040%=      5-min Rain = 0
KST3 250633Z 22011KT 20/06 A2995 RMK A01 T01950057  RH  040%=      5-min Rain = 0
KST3 250634Z 22011KT 19/06 A2995 RMK A01 T01940057  RH  040%=      5-min Rain = 0
KST3 250635Z 22011KT 19/06 A2995 RMK A01 T01940057  RH  040%=      5-min Rain = 0
KST3 250636Z 22011KT 20/06 A2995 RMK A01 T01950057  RH  040%=      5-min Rain = 0
KST3 250637Z 22011KT 20/06 A2995 RMK A01 T01960056  RH  040%=      5-min Rain = 0
KST3 250638Z 22012KT 20/06 A2995 RMK A01 T01980056  RH  040%=      5-min Rain = 0
KST3 250639Z 22012KT 20/06 A2995 RMK A01 T01990056  RH  039%=      5-min Rain = 0
KST3 250640Z 23012KT 20/06 A2995 RMK A01 T02000056  RH  039%=      5-min Rain = 0
KST3 250641Z 22012KT 20/06 A2995 RMK A01 T02010056  RH  039%=      5-min Rain = 0
KST3 250642Z 23011KT 20/06 A2995 RMK A01 T02010055  RH  038%=      5-min Rain = 0
KST3 250643Z 22012KT 20/06 A2995 RMK A01 T02020055  RH  038%=      5-min Rain = 0
KST3 250644Z 22011KT 20/06 A2995 RMK A01 T02030055  RH  038%=      5-min Rain = 0
KST3 250645Z 22011KT 20/06 A2995 RMK A01 T02030055  RH  038%=      5-min Rain = 0
KST3 250646Z 22012KT 20/05 A2995 RMK A01 T02030054  RH  038%=      5-min Rain = 0
KST3 250647Z 22011KT 20/05 A2995 RMK A01 T02030054  RH  037%=      5-min Rain = 0
KST3 250648Z 22012KT 20/05 A2995 RMK A01 T02040054  RH  037%=      5-min Rain = 0
KST3 250649Z 22012KT 20/05 A2995 RMK A01 T02040053  RH  037%=      5-min Rain = 0
KST3 250650Z 22012KT 20/05 A2995 RMK A01 T02040052  RH  037%=      5-min Rain = 0
KST3 250651Z 22011KT 21/05 A2995 RMK A01 T02050051  RH  036%=      5-min Rain = 0
KST3 250652Z 22012KT 21/05 A2995 RMK A01 T02060050  RH  036%=      5-min Rain = 0
KST3 250653Z 22011KT 21/05 A2995 RMK A01 T02060050  RH  036%=      5-min Rain = 0
KST3 250654Z 22011KT 21/05 A2995 RMK A01 T02060050  RH  036%=      5-min Rain = 0
KST3 250655Z 23011KT 21/05 A2995 RMK A01 T02060050  RH  036%=      5-min Rain = 0
KST3 250656Z 23011KT 20/05 A2995 RMK A01 T02040050  RH  036%=      5-min Rain = 0
KST3 250657Z 23012KT 20/05 A2995 RMK A01 T02020051  RH  037%=      5-min Rain = 0
KST3 250658Z 23012KT 20/05 A2995 RMK A01 T02000051  RH  038%=      5-min Rain = 0
KST3 250659Z 23012KT 20/05 A2995 RMK A01 T01990051  RH  038%=      5-min Rain = 0
KST3 250700Z 23012KT 20/05 A2995 RMK A01 T01980051  RH  038%=      5-min Rain = 0
KST3 250701Z 23012KT 20/05 A2995 RMK A01 T01970051  RH  038%=      5-min Rain = 0
KST3 250702Z 23012KT 20/05 A2995 RMK A01 T01960051  RH  038%=      5-min Rain = 0
KST3 250703Z 23012KT 20/05 A2995 RMK A01 T01950051  RH  039%=      5-min Rain = 0
KST3 250704Z 23012KT 20/05 A2995 RMK A01 T01950050  RH  039%=      5-min Rain = 0
KST3 250705Z 23012KT 19/05 A2995 RMK A01 T01940049  RH  038%=      5-min Rain = 0
KST3 250706Z 22012KT 19/05 A2995 RMK A01 T01940049  RH  038%=      5-min Rain = 0
KST3 250707Z 22012KT 20/05 A2995 RMK A01 T01950048  RH  038%=      5-min Rain = 0
KST3 250708Z 23012KT 20/05 A2995 RMK A01 T01950047  RH  038%=      5-min Rain = 0
KST3 250709Z 23012KT 20/05 A2995 RMK A01 T01960047  RH  038%=      5-min Rain = 0
KST3 250710Z 22012KT 20/05 A2995 RMK A01 T01960047  RH  037%=      5-min Rain = 0
KST3 250711Z 23011KT 20/05 A2995 RMK A01 T01960046  RH  037%=      5-min Rain = 0
KST3 250712Z 22012KT 20/05 A2995 RMK A01 T01960047  RH  037%=      5-min Rain = 0
KST3 250713Z 23012KT 20/05 A2995 RMK A01 T01950047  RH  038%=      5-min Rain = 0
KST3 250714Z 23011KT 20/05 A2995 RMK A01 T01950046  RH  038%=      5-min Rain = 0
KST3 250715Z 23012KT 19/05 A2995 RMK A01 T01940046  RH  038%=      5-min Rain = 0
KST3 250716Z 23011KT 19/05 A2995 RMK A01 T01930046  RH  038%=      5-min Rain = 0
KST3 250717Z 23011KT 19/05 A2995 RMK A01 T01920047  RH  038%=      5-min Rain = 0
KST3 250718Z 23011KT 19/05 A2995 RMK A01 T01910046  RH  038%=      5-min Rain = 0
KST3 250719Z 23012KT 19/05 A2995 RMK A01 T01910047  RH  038%=      5-min Rain = 0
KST3 250720Z 23012KT 19/05 A2995 RMK A01 T01910047  RH  039%=      5-min Rain = 0
KST3 250721Z 23012KT 19/05 A2995 RMK A01 T01910047  RH  039%=      5-min Rain = 0
KST3 250722Z 23012KT 19/05 A2995 RMK A01 T01900047  RH  039%=      5-min Rain = 0
KST3 250723Z 23012KT 19/05 A2995 RMK A01 T01900047  RH  039%=      5-min Rain = 0
KST3 250724Z 23012KT 19/05 A2995 RMK A01 T01890047  RH  039%=      5-min Rain = 0
KST3 250725Z 23012KT 19/05 A2995 RMK A01 T01890048  RH  039%=      5-min Rain = 0
KST3 250726Z 23012KT 19/05 A2995 RMK A01 T01890048  RH  039%=      5-min Rain = 0
KST3 250727Z 23012KT 19/05 A2995 RMK A01 T01890048  RH  039%=      5-min Rain = 0
KST3 250728Z 23012KT 19/05 A2995 RMK A01 T01890048  RH  039%=      5-min Rain = 0
KST3 250729Z 23012KT 19/05 A2995 RMK A01 T01890048  RH  039%=      5-min Rain = 0
KST3 250730Z 23012KT 19/05 A2995 RMK A01 T01890048  RH  039%=      5-min Rain = 0
KST3 250731Z 23012KT 19/05 A2995 RMK A01 T01890048  RH  040%=      5-min Rain = 0
KST3 250732Z 23012KT 19/05 A2995 RMK A01 T01880048  RH  040%=      5-min Rain = 0
KST3 250733Z 23012KT 19/05 A2995 RMK A01 T01880048  RH  040%=      5-min Rain = 0
KST3 250734Z 23012KT 19/05 A2995 RMK A01 T01880049  RH  040%=      5-min Rain = 0
KST3 250735Z 23012KT 19/05 A2995 RMK A01 T01860048  RH  040%=      5-min Rain = 0
KST3 250736Z 23012KT 19/05 A2995 RMK A01 T01860049  RH  040%=      5-min Rain = 0
KST3 250737Z 23012KT 19/05 A2995 RMK A01 T01850049  RH  041%=      5-min Rain = 0
KST3 250738Z 23012KT 18/05 A2995 RMK A01 T01840048  RH  041%=      5-min Rain = 0
KST3 250739Z 23012KT 18/05 A2995 RMK A01 T01840049  RH  041%=      5-min Rain = 0
KST3 250740Z 23012KT 18/05 A2995 RMK A01 T01840049  RH  041%=      5-min Rain = 0
KST3 250741Z 23012KT 18/05 A2995 RMK A01 T01840049  RH  041%=      5-min Rain = 0
KST3 250742Z 23011KT 18/05 A2995 RMK A01 T01830048  RH  041%=      5-min Rain = 0
KST3 250743Z 23012KT 18/05 A2995 RMK A01 T01830048  RH  041%=      5-min Rain = 0
KST3 250744Z 23012KT 18/05 A2995 RMK A01 T01820048  RH  041%=      5-min Rain = 0
KST3 250745Z 23012KT 18/05 A2995 RMK A01 T01820048  RH  041%=      5-min Rain = 0
KST3 250746Z 23012KT 18/05 A2995 RMK A01 T01830048  RH  041%=      5-min Rain = 0
KST3 250747Z 23012KT 18/05 A2995 RMK A01 T01830048  RH  041%=      5-min Rain = 0
KST3 250748Z 23012KT 18/05 A2995 RMK A01 T01820048  RH  041%=      5-min Rain = 0
KST3 250749Z 23012KT 18/05 A2995 RMK A01 T01820048  RH  041%=      5-min Rain = 0
KST3 250750Z 23012KT 18/05 A2995 RMK A01 T01820048  RH  041%=      5-min Rain = 0
KST3 250751Z 23012KT 18/05 A2995 RMK A01 T01810048  RH  041%=      5-min Rain = 0
KST3 250752Z 23012KT 18/05 A2995 RMK A01 T01810048  RH  041%=      5-min Rain = 0
KST3 250753Z 23012KT 18/05 A2995 RMK A01 T01810048  RH  041%=      5-min Rain = 0
KST3 250754Z 23012KT 18/05 A2995 RMK A01 T01810048  RH  041%=      5-min Rain = 0
KST3 250755Z 23012KT 18/05 A2995 RMK A01 T01800048  RH  042%=      5-min Rain = 0
KST3 250756Z 23012KT 18/05 A2995 RMK A01 T01790048  RH  042%=      5-min Rain = 0
KST3 250757Z 23012KT 18/05 A2995 RMK A01 T01790048  RH  042%=      5-min Rain = 0
KST3 250758Z 23012KT 18/05 A2995 RMK A01 T01790048  RH  042%=      5-min Rain = 0
KST3 250759Z 23012KT 18/05 A2995 RMK A01 T01790048  RH  042%=      5-min Rain = 0
KST3 250800Z 23011KT 18/05 A2995 RMK A01 T01780048  RH  042%=      5-min Rain = 0
KST3 250801Z 23011KT 18/05 A2995 RMK A01 T01770047  RH  042%=      5-min Rain = 0
KST3 250802Z 23012KT 18/05 A2995 RMK A01 T01770047  RH  042%=      5-min Rain = 0
KST3 250803Z 23011KT 18/05 A2995 RMK A01 T01760047  RH  042%=      5-min Rain = 0
KST3 250804Z 23011KT 18/05 A2995 RMK A01 T01760047  RH  042%=      5-min Rain = 0
KST3 250805Z 23011KT 18/05 A2995 RMK A01 T01760047  RH  043%=      5-min Rain = 0
KST3 250806Z 23011KT 18/05 A2995 RMK A01 T01760047  RH  043%=      5-min Rain = 0
KST3 250807Z 23012KT 18/05 A2995 RMK A01 T01750046  RH  042%=      5-min Rain = 0
KST3 250808Z 23012KT 18/05 A2995 RMK A01 T01750046  RH  042%=      5-min Rain = 0
KST3 250809Z 23012KT 18/05 A2995 RMK A01 T01760046  RH  042%=      5-min Rain = 0
KST3 250810Z 23012KT 18/05 A2995 RMK A01 T01760046  RH  042%=      5-min Rain = 0
KST3 250811Z 23012KT 18/05 A2995 RMK A01 T01750046  RH  042%=      5-min Rain = 0
KST3 250812Z 23012KT 18/05 A2995 RMK A01 T01760046  RH  042%=      5-min Rain = 0
KST3 250813Z 24012KT 18/05 A2995 RMK A01 T01750045  RH  042%=      5-min Rain = 0
KST3 250814Z 24013KT 18/05 A2995 RMK A01 T01760045  RH  042%=      5-min Rain = 0
KST3 250815Z 23013KT 18/04 A2995 RMK A01 T01760044  RH  042%=      5-min Rain = 0
KST3 250816Z 23013KT 18/04 A2995 RMK A01 T01770044  RH  041%=      5-min Rain = 0
KST3 250817Z 23013KT 18/04 A2995 RMK A01 T01780044  RH  041%=      5-min Rain = 0
KST3 250818Z 23012KT 18/04 A2995 RMK A01 T01780044  RH  041%=      5-min Rain = 0
KST3 250819Z 23012KT 18/04 A2995 RMK A01 T01790044  RH  041%=      5-min Rain = 0
KST3 250820Z 23012KT 18/04 A2995 RMK A01 T01800043  RH  040%=      5-min Rain = 0
KST3 250821Z 23013KT 18/04 A2995 RMK A01 T01800043  RH  040%=      5-min Rain = 0
KST3 250822Z 23012KT 18/04 A2995 RMK A01 T01800043  RH  040%=      5-min Rain = 0
KST3 250823Z 23012KT 18/04 A2995 RMK A01 T01800043  RH  040%=      5-min Rain = 0
KST3 250824Z 24012KT 18/04 A2995 RMK A01 T01800043  RH  040%=      5-min Rain = 0
KST3 250825Z 24012KT 18/04 A2995 RMK A01 T01790043  RH  040%=      5-min Rain = 0
KST3 250826Z 24013KT 18/04 A2995 RMK A01 T01790043  RH  040%=      5-min Rain = 0
KST3 250827Z 24012KT 18/04 A2995 RMK A01 T01780043  RH  041%=      5-min Rain = 0
KST3 250828Z 24012KT 18/04 A2995 RMK A01 T01780043  RH  041%=      5-min Rain = 0
KST3 250829Z 24012KT 18/04 A2995 RMK A01 T01780043  RH  041%=      5-min Rain = 0
KST3 250830Z 24013KT 18/04 A2995 RMK A01 T01770043  RH  041%=      5-min Rain = 0
KST3 250831Z 24012KT 18/04 A2995 RMK A01 T01770043  RH  041%=      5-min Rain = 0
KST3 250832Z 24013KT 18/04 A2995 RMK A01 T01770042  RH  041%=      5-min Rain = 0
KST3 250833Z 24013KT 18/04 A2995 RMK A01 T01770042  RH  041%=      5-min Rain = 0
KST3 250834Z 24013KT 18/04 A2995 RMK A01 T01770042  RH  041%=      5-min Rain = 0
KST3 250835Z 24013KT 18/04 A2995 RMK A01 T01770042  RH  041%=      5-min Rain = 0
KST3 250836Z 24013KT 18/04 A2995 RMK A01 T01770042  RH  041%=      5-min Rain = 0
KST3 250837Z 24013KT 18/04 A2995 RMK A01 T01780041  RH  040%=      5-min Rain = 0
KST3 250838Z 24013KT 18/04 A2995 RMK A01 T01780041  RH  040%=      5-min Rain = 0
KST3 250839Z 24013KT 18/04 A2995 RMK A01 T01780041  RH  040%=      5-min Rain = 0
KST3 250840Z 24013KT 18/04 A2995 RMK A01 T01790041  RH  040%=      5-min Rain = 0
KST3 250841Z 24013KT 18/04 A2995 RMK A01 T01790040  RH  040%=      5-min Rain = 0
KST3 250842Z 24013KT 18/04 A2995 RMK A01 T01800040  RH  040%=      5-min Rain = 0
KST3 250843Z 24013KT 18/04 A2995 RMK A01 T01800040  RH  039%=      5-min Rain = 0
KST3 250844Z 24013KT 18/04 A2995 RMK A01 T01800040  RH  039%=      5-min Rain = 0
KST3 250845Z 24013KT 18/04 A2995 RMK A01 T01800040  RH  039%=      5-min Rain = 0
KST3 250846Z 24013KT 18/04 A2995 RMK A01 T01800040  RH  039%=      5-min Rain = 0
KST3 250847Z 24012KT 18/04 A2995 RMK A01 T01800040  RH  039%=      5-min Rain = 0
KST3 250848Z 24012KT 18/04 A2995 RMK A01 T01800039  RH  039%=      5-min Rain = 0
KST3 250849Z 24012KT 18/04 A2995 RMK A01 T01800039  RH  039%=      5-min Rain = 0
KST3 250850Z 24012KT 18/04 A2995 RMK A01 T01790040  RH  040%=      5-min Rain = 0
KST3 250851Z 24013KT 18/04 A2995 RMK A01 T01780040  RH  040%=      5-min Rain = 0
KST3 250852Z 24013KT 18/04 A2995 RMK A01 T01770040  RH  040%=      5-min Rain = 0
KST3 250853Z 24012KT 18/04 A2995 RMK A01 T01770039  RH  040%=      5-min Rain = 0
KST3 250854Z 24013KT 18/04 A2995 RMK A01 T01780039  RH  040%=      5-min Rain = 0
KST3 250855Z 24012KT 18/04 A2995 RMK A01 T01780039  RH  040%=      5-min Rain = 0
KST3 250856Z 24012KT 18/04 A2995 RMK A01 T01790039  RH  039%=      5-min Rain = 0
KST3 250857Z 24013KT 18/04 A2995 RMK A01 T01790039  RH  039%=      5-min Rain = 0
KST3 250858Z 24013KT 18/04 A2995 RMK A01 T01790039  RH  039%=      5-min Rain = 0
KST3 250859Z 24013KT 18/04 A2995 RMK A01 T01790039  RH  039%=      5-min Rain = 0
KST3 250900Z 24012KT 18/04 A2995 RMK A01 T01790038  RH  039%=      5-min Rain = 0
KST3 250901Z 24012KT 18/04 A2995 RMK A01 T01790038  RH  039%=      5-min Rain = 0
KST3 250902Z 24013KT 18/04 A2995 RMK A01 T01790038  RH  039%=      5-min Rain = 0
KST3 250903Z 24013KT 18/04 A2995 RMK A01 T01790038  RH  039%=      5-min Rain = 0
KST3 250904Z 24013KT 18/04 A2995 RMK A01 T01790038  RH  039%=      5-min Rain = 0
KST3 250905Z 24013KT 18/04 A2995 RMK A01 T01790038  RH  039%=      5-min Rain = 0
KST3 250906Z 24013KT 18/04 A2995 RMK A01 T01790038  RH  039%=      5-min Rain = 0
KST3 250907Z 24013KT 18/04 A2995 RMK A01 T01790038  RH  039%=      5-min Rain = 0
KST3 250908Z 24013KT 18/04 A2994 RMK A01 T01790038  RH  039%=      5-min Rain = 0
KST3 250909Z 24013KT 18/04 A2994 RMK A01 T01790038  RH  039%=      5-min Rain = 0
KST3 250910Z 24013KT 18/04 A2994 RMK A01 T01790037  RH  039%=      5-min Rain = 0
KST3 250911Z 24013KT 18/04 A2994 RMK A01 T01800037  RH  039%=      5-min Rain = 0
KST3 250912Z 24013KT 18/04 A2994 RMK A01 T01800037  RH  039%=      5-min Rain = 0
KST3 250913Z 23013KT 18/04 A2994 RMK A01 T01800037  RH  039%=      5-min Rain = 0
KST3 250914Z 24013KT 18/04 A2994 RMK A01 T01800037  RH  039%=      5-min Rain = 0
KST3 250915Z 24013KT 18/04 A2994 RMK A01 T01800037  RH  039%=      5-min Rain = 0
KST3 250916Z 24013KT 18/04 A2994 RMK A01 T01800037  RH  039%=      5-min Rain = 0
KST3 250917Z 23012KT 18/04 A2994 RMK A01 T01790037  RH  039%=      5-min Rain = 0
KST3 250918Z 23013KT 18/04 A2994 RMK A01 T01790037  RH  039%=      5-min Rain = 0
KST3 250919Z 23012KT 18/04 A2994 RMK A01 T01790037  RH  039%=      5-min Rain = 0
KST3 250920Z 23013KT 18/04 A2994 RMK A01 T01790037  RH  039%=      5-min Rain = 0
KST3 250921Z 23013KT 18/04 A2994 RMK A01 T01790037  RH  039%=      5-min Rain = 0
KST3 250922Z 23013KT 18/04 A2994 RMK A01 T01780037  RH  039%=      5-min Rain = 0
KST3 250923Z 24013KT 18/04 A2994 RMK A01 T01780037  RH  039%=      5-min Rain = 0
KST3 250924Z 24013KT 18/04 A2994 RMK A01 T01780036  RH  039%=      5-min Rain = 0
KST3 250925Z 24013KT 18/04 A2994 RMK A01 T01780037  RH  039%=      5-min Rain = 0
KST3 250926Z 24013KT 18/04 A2994 RMK A01 T01770036  RH  039%=      5-min Rain = 0
KST3 250927Z 24013KT 18/04 A2994 RMK A01 T01770036  RH  039%=      5-min Rain = 0
KST3 250928Z 23013KT 18/04 A2994 RMK A01 T01770036  RH  039%=      5-min Rain = 0
KST3 250929Z 24013KT 18/04 A2994 RMK A01 T01780036  RH  039%=      5-min Rain = 0
KST3 250930Z 24013KT 18/04 A2994 RMK A01 T01780036  RH  039%=      5-min Rain = 0
KST3 250931Z 24013KT 18/04 A2994 RMK A01 T01780036  RH  039%=      5-min Rain = 0
KST3 250932Z 24013KT 18/04 A2994 RMK A01 T01780036  RH  039%=      5-min Rain = 0
KST3 250933Z 24013KT 18/04 A2994 RMK A01 T01780036  RH  039%=      5-min Rain = 0
KST3 250934Z 24014KT 18/04 A2994 RMK A01 T01780036  RH  039%=      5-min Rain = 0
KST3 250935Z 24014KT 18/04 A2994 RMK A01 T01780035  RH  039%=      5-min Rain = 0
KST3 250936Z 23014KT 18/04 A2994 RMK A01 T01780035  RH  038%=      5-min Rain = 0
KST3 250937Z 24014KT 18/04 A2994 RMK A01 T01800035  RH  038%=      5-min Rain = 0
KST3 250938Z 24014KT 18/03 A2994 RMK A01 T01810034  RH  038%=      5-min Rain = 0
KST3 250939Z 24013KT 18/04 A2994 RMK A01 T01820035  RH  038%=      5-min Rain = 0
KST3 250940Z 24014KT 18/04 A2994 RMK A01 T01820035  RH  038%=      5-min Rain = 0
KST3 250941Z 24013KT 18/03 A2994 RMK A01 T01810034  RH  038%=      5-min Rain = 0
KST3 250942Z 24014KT 18/04 A2994 RMK A01 T01810035  RH  038%=      5-min Rain = 0
KST3 250943Z 24014KT 18/03 A2994 RMK A01 T01810034  RH  037%=      5-min Rain = 0
KST3 250944Z 24014KT 18/03 A2994 RMK A01 T01820034  RH  037%=      5-min Rain = 0
KST3 250945Z 24014KT 18/04 A2994 RMK A01 T01820035  RH  038%=      5-min Rain = 0
KST3 250946Z 24014KT 18/03 A2994 RMK A01 T01810034  RH  038%=      5-min Rain = 0
KST3 250947Z 24014KT 18/03 A2994 RMK A01 T01810034  RH  038%=      5-min Rain = 0
KST3 250948Z 24014KT 18/03 A2994 RMK A01 T01820034  RH  037%=      5-min Rain = 0
KST3 250949Z 24014KT 18/03 A2994 RMK A01 T01820034  RH  037%=      5-min Rain = 0
KST3 250950Z 24014KT 18/03 A2994 RMK A01 T01830034  RH  037%=      5-min Rain = 0
KST3 250951Z 24014KT 18/03 A2994 RMK A01 T01840034  RH  037%=      5-min Rain = 0
KST3 250952Z 24014KT 19/03 A2994 RMK A01 T01850034  RH  037%=      5-min Rain = 0
KST3 250953Z 24014KT 19/03 A2994 RMK A01 T01850034  RH  037%=      5-min Rain = 0
KST3 250954Z 24014KT 19/03 A2994 RMK A01 T01850034  RH  037%=      5-min Rain = 0
KST3 250955Z 24014KT 19/03 A2994 RMK A01 T01850034  RH  036%=      5-min Rain = 0
KST3 250956Z 24014KT 19/03 A2994 RMK A01 T01860034  RH  036%=      5-min Rain = 0
KST3 250957Z 24013KT 19/03 A2994 RMK A01 T01860034  RH  037%=      5-min Rain = 0
KST3 250958Z 24014KT 19/03 A2994 RMK A01 T01850034  RH  037%=      5-min Rain = 0
KST3 250959Z 24014KT 18/03 A2994 RMK A01 T01840034  RH  037%=      5-min Rain = 0
KST3 251000Z 24014KT 18/03 A2994 RMK A01 T01840034  RH  037%=      5-min Rain = 0
KST3 251001Z 24014KT 18/03 A2994 RMK A01 T01840034  RH  037%=      5-min Rain = 0
KST3 251002Z 24013KT 18/03 A2994 RMK A01 T01840034  RH  037%=      5-min Rain = 0
KST3 251003Z 24014KT 18/03 A2994 RMK A01 T01840034  RH  037%=      5-min Rain = 0
KST3 251004Z 24013KT 18/03 A2994 RMK A01 T01830034  RH  037%=      5-min Rain = 0
KST3 251005Z 24013KT 18/03 A2994 RMK A01 T01830034  RH  037%=      5-min Rain = 0
KST3 251006Z 24014KT 18/03 A2994 RMK A01 T01830034  RH  037%=      5-min Rain = 0
KST3 251007Z 24013KT 18/03 A2994 RMK A01 T01820034  RH  037%=      5-min Rain = 0
KST3 251008Z 24014KT 18/03 A2994 RMK A01 T01820034  RH  037%=      5-min Rain = 0
KST3 251009Z 24014KT 18/03 A2994 RMK A01 T01820034  RH  037%=      5-min Rain = 0
KST3 251010Z 24013KT 18/03 A2994 RMK A01 T01820034  RH  037%=      5-min Rain = 0
KST3 251011Z 24013KT 18/03 A2994 RMK A01 T01820034  RH  037%=      5-min Rain = 0
KST3 251012Z 24013KT 18/03 A2994 RMK A01 T01820034  RH  037%=      5-min Rain = 0
KST3 251013Z 24013KT 18/04 A2994 RMK A01 T01820035  RH  038%=      5-min Rain = 0
KST3 251014Z 24013KT 18/03 A2994 RMK A01 T01810034  RH  038%=      5-min Rain = 0
KST3 251015Z 24013KT 18/03 A2994 RMK A01 T01810034  RH  038%=      5-min Rain = 0
KST3 251016Z 24013KT 18/03 A2994 RMK A01 T01800034  RH  038%=      5-min Rain = 0
KST3 251017Z 24013KT 18/03 A2994 RMK A01 T01800034  RH  038%=      5-min Rain = 0
KST3 251018Z 24013KT 18/04 A2994 RMK A01 T01800035  RH  038%=      5-min Rain = 0
KST3 251019Z 24013KT 18/04 A2994 RMK A01 T01800035  RH  038%=      5-min Rain = 0
KST3 251020Z 24012KT 18/04 A2994 RMK A01 T01800035  RH  038%=      5-min Rain = 0
KST3 251021Z 24013KT 18/04 A2994 RMK A01 T01790035  RH  038%=      5-min Rain = 0
KST3 251022Z 24013KT 18/04 A2994 RMK A01 T01790035  RH  038%=      5-min Rain = 0
KST3 251023Z 24013KT 18/04 A2994 RMK A01 T01780035  RH  038%=      5-min Rain = 0
KST3 251024Z 24013KT 18/04 A2994 RMK A01 T01780035  RH  039%=      5-min Rain = 0
KST3 251025Z 24013KT 18/04 A2994 RMK A01 T01780035  RH  039%=      5-min Rain = 0
KST3 251026Z 24013KT 18/04 A2994 RMK A01 T01780035  RH  039%=      5-min Rain = 0
KST3 251027Z 24013KT 18/04 A2994 RMK A01 T01780035  RH  039%=      5-min Rain = 0
KST3 251028Z 24012KT 18/04 A2994 RMK A01 T01770035  RH  039%=      5-min Rain = 0
KST3 251029Z 24013KT 18/04 A2994 RMK A01 T01770036  RH  039%=      5-min Rain = 0
KST3 251030Z 24012KT 18/04 A2995 RMK A01 T01770036  RH  039%=      5-min Rain = 0
KST3 251031Z 24012KT 18/04 A2995 RMK A01 T01770036  RH  039%=      5-min Rain = 0
KST3 251032Z 24012KT 18/04 A2995 RMK A01 T01760036  RH  039%=      5-min Rain = 0
KST3 251033Z 24012KT 18/04 A2995 RMK A01 T01760036  RH  039%=      5-min Rain = 0
KST3 251034Z 24012KT 18/04 A2995 RMK A01 T01760036  RH  039%=      5-min Rain = 0
KST3 251035Z 24012KT 18/04 A2995 RMK A01 T01760036  RH  039%=      5-min Rain = 0
KST3 251036Z 24012KT 18/04 A2995 RMK A01 T01760036  RH  039%=      5-min Rain = 0
KST3 251037Z 24012KT 18/04 A2995 RMK A01 T01750036  RH  040%=      5-min Rain = 0
KST3 251038Z 24013KT 18/04 A2995 RMK A01 T01750036  RH  040%=      5-min Rain = 0
KST3 251039Z 24013KT 18/04 A2994 RMK A01 T01750036  RH  040%=      5-min Rain = 0
KST3 251040Z 24013KT 18/04 A2994 RMK A01 T01750036  RH  040%=      5-min Rain = 0
KST3 251041Z 24012KT 18/04 A2994 RMK A01 T01750036  RH  040%=      5-min Rain = 0
KST3 251042Z 24012KT 18/04 A2995 RMK A01 T01750036  RH  040%=      5-min Rain = 0
KST3 251043Z 24013KT 18/04 A2995 RMK A01 T01750037  RH  040%=      5-min Rain = 0
KST3 251044Z 24013KT 18/04 A2995 RMK A01 T01750037  RH  040%=      5-min Rain = 0
KST3 251045Z 24012KT 18/04 A2995 RMK A01 T01760037  RH  040%=      5-min Rain = 0
KST3 251046Z 24012KT 18/04 A2995 RMK A01 T01750037  RH  040%=      5-min Rain = 0
KST3 251047Z 24012KT 18/04 A2995 RMK A01 T01750037  RH  040%=      5-min Rain = 0
KST3 251048Z 24012KT 18/04 A2995 RMK A01 T01750038  RH  040%=      5-min Rain = 0
KST3 251049Z 24012KT 18/04 A2995 RMK A01 T01750037  RH  040%=      5-min Rain = 0
KST3 251050Z 24012KT 17/04 A2995 RMK A01 T01740037  RH  040%=      5-min Rain = 0
KST3 251051Z 24012KT 17/04 A2995 RMK A01 T01740037  RH  040%=      5-min Rain = 0
KST3 251052Z 24012KT 18/04 A2995 RMK A01 T01750038  RH  040%=      5-min Rain = 0
KST3 251053Z 24012KT 17/04 A2995 RMK A01 T01740038  RH  040%=      5-min Rain = 0
KST3 251054Z 24012KT 17/04 A2995 RMK A01 T01740038  RH  040%=      5-min Rain = 0
KST3 251055Z 24012KT 17/04 A2995 RMK A01 T01740039  RH  041%=      5-min Rain = 0
KST3 251056Z 24012KT 17/04 A2995 RMK A01 T01740039  RH  041%=      5-min Rain = 0
KST3 251057Z 24013KT 17/04 A2995 RMK A01 T01740039  RH  041%=      5-min Rain = 0
KST3 251058Z 24012KT 17/04 A2995 RMK A01 T01740039  RH  041%=      5-min Rain = 0
KST3 251059Z 24012KT 17/04 A2995 RMK A01 T01740039  RH  041%=      5-min Rain = 0
KST3 251100Z 24012KT 17/04 A2995 RMK A01 T01740039  RH  041%=      5-min Rain = 0
KST3 251101Z 24012KT 17/04 A2995 RMK A01 T01740039  RH  041%=      5-min Rain = 0
KST3 251102Z 24012KT 17/04 A2995 RMK A01 T01740039  RH  041%=      5-min Rain = 0
KST3 251103Z 24012KT 17/04 A2995 RMK A01 T01740040  RH  041%=      5-min Rain = 0
KST3 251104Z 24012KT 17/04 A2995 RMK A01 T01740040  RH  041%=      5-min Rain = 0
KST3 251105Z 24012KT 17/04 A2995 RMK A01 T01730040  RH  041%=      5-min Rain = 0
KST3 251106Z 24012KT 17/04 A2995 RMK A01 T01730040  RH  041%=      5-min Rain = 0
KST3 251107Z 24012KT 17/04 A2995 RMK A01 T01730040  RH  041%=      5-min Rain = 0
KST3 251108Z 24012KT 17/04 A2995 RMK A01 T01730040  RH  041%=      5-min Rain = 0
KST3 251109Z 24013KT 17/04 A2995 RMK A01 T01730041  RH  041%=      5-min Rain = 0
KST3 251110Z 24013KT 17/04 A2995 RMK A01 T01730041  RH  041%=      5-min Rain = 0
KST3 251111Z 24013KT 17/04 A2995 RMK A01 T01740041  RH  041%=      5-min Rain = 0
KST3 251112Z 24013KT 17/04 A2995 RMK A01 T01740042  RH  041%=      5-min Rain = 0
KST3 251113Z 24013KT 18/04 A2995 RMK A01 T01750042  RH  041%=      5-min Rain = 0
KST3 251114Z 24013KT 18/04 A2995 RMK A01 T01750042  RH  041%=      5-min Rain = 0
KST3 251115Z 24013KT 18/04 A2995 RMK A01 T01750043  RH  041%=      5-min Rain = 0
KST3 251116Z 24013KT 18/04 A2995 RMK A01 T01750043  RH  041%=      5-min Rain = 0
KST3 251117Z 24013KT 18/04 A2995 RMK A01 T01750043  RH  041%=      5-min Rain = 0
KST3 251118Z 24013KT 18/04 A2995 RMK A01 T01750043  RH  042%=      5-min Rain = 0
KST3 251119Z 24012KT 18/04 A2995 RMK A01 T01760044  RH  042%=      5-min Rain = 0
KST3 251120Z 24013KT 18/04 A2995 RMK A01 T01750044  RH  042%=      5-min Rain = 0
KST3 251121Z 24012KT 18/04 A2995 RMK A01 T01750044  RH  042%=      5-min Rain = 0
KST3 251122Z 24013KT 17/04 A2995 RMK A01 T01740044  RH  042%=      5-min Rain = 0
KST3 251123Z 24013KT 17/04 A2995 RMK A01 T01740044  RH  042%=      5-min Rain = 0
KST3 251124Z 24013KT 17/04 A2995 RMK A01 T01740044  RH  042%=      5-min Rain = 0
KST3 251125Z 24012KT 17/04 A2995 RMK A01 T01740044  RH  042%=      5-min Rain = 0
KST3 251126Z 24012KT 17/04 A2995 RMK A01 T01730044  RH  042%=      5-min Rain = 0
KST3 251127Z 24013KT 17/04 A2995 RMK A01 T01730044  RH  043%=      5-min Rain = 0
KST3 251128Z 24013KT 17/05 A2995 RMK A01 T01730045  RH  043%=      5-min Rain = 0
KST3 251129Z 24013KT 17/05 A2995 RMK A01 T01730045  RH  043%=      5-min Rain = 0
KST3 251130Z 24013KT 17/05 A2995 RMK A01 T01730045  RH  043%=      5-min Rain = 0
KST3 251131Z 24013KT 17/05 A2995 RMK A01 T01720045  RH  043%=      5-min Rain = 0
KST3 251132Z 24013KT 17/05 A2995 RMK A01 T01720045  RH  043%=      5-min Rain = 0
KST3 251133Z 24013KT 17/05 A2995 RMK A01 T01720046  RH  043%=      5-min Rain = 0
KST3 251134Z 24013KT 17/05 A2995 RMK A01 T01720046  RH  043%=      5-min Rain = 0
KST3 251135Z 24013KT 17/05 A2995 RMK A01 T01720046  RH  043%=      5-min Rain = 0
KST3 251136Z 24013KT 17/05 A2995 RMK A01 T01730047  RH  043%=      5-min Rain = 0
KST3 251137Z 24013KT 17/05 A2995 RMK A01 T01730047  RH  043%=      5-min Rain = 0
KST3 251138Z 24013KT 17/05 A2995 RMK A01 T01740048  RH  043%=      5-min Rain = 0
KST3 251139Z 24013KT 18/05 A2995 RMK A01 T01750048  RH  043%=      5-min Rain = 0
KST3 251140Z 24013KT 18/05 A2995 RMK A01 T01750048  RH  043%=      5-min Rain = 0
KST3 251141Z 24013KT 18/05 A2995 RMK A01 T01750049  RH  043%=      5-min Rain = 0
KST3 251142Z 24013KT 18/05 A2995 RMK A01 T01750049  RH  043%=      5-min Rain = 0
KST3 251143Z 23013KT 18/05 A2995 RMK A01 T01750050  RH  044%=      5-min Rain = 0
KST3 251144Z 24013KT 18/05 A2995 RMK A01 T01750050  RH  044%=      5-min Rain = 0
KST3 251145Z 24013KT 18/05 A2995 RMK A01 T01750050  RH  044%=      5-min Rain = 0
KST3 251146Z 24013KT 18/05 A2995 RMK A01 T01750051  RH  044%=      5-min Rain = 0
KST3 251147Z 24013KT 18/05 A2995 RMK A01 T01750052  RH  044%=      5-min Rain = 0
KST3 251148Z 24012KT 18/05 A2995 RMK A01 T01750052  RH  044%=      5-min Rain = 0
KST3 251149Z 24012KT 17/05 A2995 RMK A01 T01740052  RH  044%=      5-min Rain = 0
KST3 251150Z 24013KT 17/05 A2995 RMK A01 T01730052  RH  045%=      5-min Rain = 0
KST3 251151Z 24013KT 17/05 A2995 RMK A01 T01730053  RH  045%=      5-min Rain = 0
KST3 251152Z 24013KT 17/05 A2995 RMK A01 T01730053  RH  045%=      5-min Rain = 0
KST3 251153Z 23013KT 17/05 A2995 RMK A01 T01730053  RH  045%=      5-min Rain = 0
KST3 251154Z 23013KT 17/05 A2995 RMK A01 T01730054  RH  045%=      5-min Rain = 0
KST3 251155Z 23013KT 17/05 A2995 RMK A01 T01730054  RH  045%=      5-min Rain = 0
KST3 251156Z 24013KT 17/05 A2995 RMK A01 T01730054  RH  046%=      5-min Rain = 0
KST3 251157Z 24013KT 17/05 A2995 RMK A01 T01720054  RH  046%=      5-min Rain = 0
KST3 251158Z 24013KT 17/06 A2995 RMK A01 T01720055  RH  046%=      5-min Rain = 0
KST3 251159Z 24012KT 17/06 A2995 RMK A01 T01710055  RH  046%=      5-min Rain = 0
KST3 251200Z 24013KT 17/06 A2995 RMK A01 T01710056  RH  047%=      5-min Rain = 0
KST3 251201Z 24013KT 17/06 A2995 RMK A01 T01710057  RH  047%=      5-min Rain = 0
KST3 251202Z 24013KT 17/06 A2995 RMK A01 T01710057  RH  047%=      5-min Rain = 0
KST3 251203Z 24013KT 17/06 A2995 RMK A01 T01710057  RH  047%=      5-min Rain = 0
KST3 251204Z 24013KT 17/06 A2995 RMK A01 T01710057  RH  047%=      5-min Rain = 0
KST3 251205Z 24013KT 17/06 A2995 RMK A01 T01720058  RH  047%=      5-min Rain = 0
KST3 251206Z 24013KT 17/06 A2995 RMK A01 T01720058  RH  047%=      5-min Rain = 0
KST3 251207Z 24013KT 17/06 A2995 RMK A01 T01720059  RH  047%=      5-min Rain = 0
KST3 251208Z 24013KT 17/06 A2995 RMK A01 T01730059  RH  047%=      5-min Rain = 0
KST3 251209Z 24013KT 17/06 A2995 RMK A01 T01730059  RH  047%=      5-min Rain = 0
KST3 251210Z 24013KT 17/06 A2995 RMK A01 T01730059  RH  047%=      5-min Rain = 0
KST3 251211Z 24013KT 17/06 A2995 RMK A01 T01730059  RH  047%=      5-min Rain = 0
KST3 251212Z 24013KT 17/06 A2995 RMK A01 T01730059  RH  047%=      5-min Rain = 0
KST3 251213Z 24013KT 17/06 A2995 RMK A01 T01730060  RH  047%=      5-min Rain = 0
KST3 251214Z 24013KT 17/06 A2995 RMK A01 T01720060  RH  048%=      5-min Rain = 0
KST3 251215Z 24013KT 17/06 A2995 RMK A01 T01720060  RH  048%=      5-min Rain = 0
KST3 251216Z 24013KT 17/06 A2995 RMK A01 T01730061  RH  048%=      5-min Rain = 0
KST3 251217Z 24013KT 17/06 A2995 RMK A01 T01740061  RH  048%=      5-min Rain = 0
KST3 251218Z 24013KT 17/06 A2995 RMK A01 T01740062  RH  048%=      5-min Rain = 0
KST3 251219Z 24013KT 17/06 A2995 RMK A01 T01740062  RH  048%=      5-min Rain = 0
KST3 251220Z 24013KT 18/06 A2995 RMK A01 T01750063  RH  048%=      5-min Rain = 0
KST3 251221Z 24014KT 18/06 A2995 RMK A01 T01750063  RH  048%=      5-min Rain = 0
KST3 251222Z 24013KT 18/06 A2995 RMK A01 T01760064  RH  048%=      5-min Rain = 0
KST3 251223Z 24013KT 18/06 A2995 RMK A01 T01770064  RH  047%=      5-min Rain = 0
KST3 251224Z 24013KT 18/06 A2996 RMK A01 T01770064  RH  047%=      5-min Rain = 0
KST3 251225Z 24013KT 18/06 A2996 RMK A01 T01770064  RH  047%=      5-min Rain = 0
KST3 251226Z 24013KT 18/06 A2996 RMK A01 T01770064  RH  047%=      5-min Rain = 0
KST3 251227Z 24013KT 18/06 A2996 RMK A01 T01770064  RH  048%=      5-min Rain = 0
KST3 251228Z 24013KT 18/06 A2996 RMK A01 T01760064  RH  048%=      5-min Rain = 0
KST3 251229Z 24013KT 18/06 A2996 RMK A01 T01760064  RH  048%=      5-min Rain = 0
KST3 251230Z 23013KT 18/06 A2996 RMK A01 T01760064  RH  048%=      5-min Rain = 0
KST3 251231Z 23013KT 18/06 A2996 RMK A01 T01750064  RH  048%=      5-min Rain = 0
KST3 251232Z 23013KT 18/07 A2996 RMK A01 T01760065  RH  048%=      5-min Rain = 0
KST3 251233Z 23013KT 18/07 A2996 RMK A01 T01760065  RH  048%=      5-min Rain = 0
KST3 251234Z 23013KT 18/07 A2996 RMK A01 T01760065  RH  048%=      5-min Rain = 0
KST3 251235Z 24013KT 18/07 A2996 RMK A01 T01750065  RH  048%=      5-min Rain = 0
KST3 251236Z 23013KT 18/07 A2996 RMK A01 T01750065  RH  048%=      5-min Rain = 0
KST3 251237Z 23013KT 18/07 A2996 RMK A01 T01750065  RH  048%=      5-min Rain = 0
KST3 251238Z 24013KT 17/07 A2995 RMK A01 T01740065  RH  049%=      5-min Rain = 0
KST3 251239Z 24013KT 17/07 A2996 RMK A01 T01740065  RH  049%=      5-min Rain = 0
KST3 251240Z 24013KT 17/07 A2995 RMK A01 T01740065  RH  049%=      5-min Rain = 0
KST3 251241Z 24013KT 17/07 A2996 RMK A01 T01730065  RH  049%=      5-min Rain = 0
KST3 251242Z 24012KT 17/07 A2996 RMK A01 T01730065  RH  049%=      5-min Rain = 0
KST3 251243Z 24012KT 17/07 A2996 RMK A01 T01720065  RH  049%=      5-min Rain = 0
KST3 251244Z 24012KT 17/07 A2996 RMK A01 T01710065  RH  049%=      5-min Rain = 0
KST3 251245Z 24012KT 17/07 A2996 RMK A01 T01720065  RH  050%=      5-min Rain = 0
KST3 251246Z 24012KT 17/07 A2996 RMK A01 T01710065  RH  050%=      5-min Rain = 0
KST3 251247Z 24012KT 17/07 A2996 RMK A01 T01720065  RH  050%=      5-min Rain = 0
KST3 251248Z 24012KT 17/07 A2996 RMK A01 T01720065  RH  049%=      5-min Rain = 0
KST3 251249Z 24012KT 17/07 A2996 RMK A01 T01730066  RH  049%=      5-min Rain = 0
KST3 251250Z 24012KT 17/07 A2996 RMK A01 T01740066  RH  049%=      5-min Rain = 0
KST3 251251Z 24012KT 17/07 A2996 RMK A01 T01740066  RH  049%=      5-min Rain = 0
KST3 251252Z 24012KT 18/07 A2996 RMK A01 T01750066  RH  049%=      5-min Rain = 0
KST3 251253Z 24012KT 18/07 A2996 RMK A01 T01750066  RH  049%=      5-min Rain = 0
KST3 251254Z 24012KT 18/07 A2996 RMK A01 T01750066  RH  049%=      5-min Rain = 0
KST3 251255Z 24012KT 18/07 A2996 RMK A01 T01760066  RH  048%=      5-min Rain = 0
KST3 251256Z 24012KT 18/07 A2996 RMK A01 T01770066  RH  048%=      5-min Rain = 0
KST3 251257Z 24013KT 18/07 A2996 RMK A01 T01770066  RH  048%=      5-min Rain = 0
KST3 251258Z 24012KT 18/07 A2996 RMK A01 T01770066  RH  048%=      5-min Rain = 0
KST3 251259Z 24012KT 18/07 A2996 RMK A01 T01780066  RH  048%=      5-min Rain = 0
KST3 251300Z 24012KT 18/07 A2996 RMK A01 T01790066  RH  048%=      5-min Rain = 0
KST3 251301Z 24012KT 18/07 A2996 RMK A01 T01800067  RH  047%=      5-min Rain = 0
KST3 251302Z 24013KT 18/07 A2996 RMK A01 T01800066  RH  047%=      5-min Rain = 0
KST3 251303Z 24012KT 18/07 A2996 RMK A01 T01810067  RH  047%=      5-min Rain = 0
KST3 251304Z 24012KT 18/07 A2996 RMK A01 T01820067  RH  047%=      5-min Rain = 0
KST3 251305Z 24012KT 18/07 A2996 RMK A01 T01820067  RH  047%=      5-min Rain = 0
KST3 251306Z 24012KT 18/07 A2996 RMK A01 T01820067  RH  047%=      5-min Rain = 0
KST3 251307Z 24012KT 18/07 A2996 RMK A01 T01830067  RH  047%=      5-min Rain = 0
KST3 251308Z 24012KT 18/07 A2996 RMK A01 T01830067  RH  047%=      5-min Rain = 0
KST3 251309Z 23012KT 18/07 A2996 RMK A01 T01840067  RH  046%=      5-min Rain = 0
KST3 251310Z 23012KT 18/07 A2996 RMK A01 T01840067  RH  046%=      5-min Rain = 0
KST3 251311Z 24012KT 19/07 A2996 RMK A01 T01850067  RH  046%=      5-min Rain = 0
KST3 251312Z 23012KT 19/07 A2996 RMK A01 T01850067  RH  046%=      5-min Rain = 0
KST3 251313Z 23013KT 19/07 A2996 RMK A01 T01850067  RH  046%=      5-min Rain = 0
KST3 251314Z 23012KT 19/07 A2996 RMK A01 T01860067  RH  046%=      5-min Rain = 0
KST3 251315Z 23012KT 19/07 A2996 RMK A01 T01860068  RH  046%=      5-min Rain = 0
KST3 251316Z 23012KT 19/07 A2996 RMK A01 T01860068  RH  046%=      5-min Rain = 0
KST3 251317Z 23012KT 19/07 A2996 RMK A01 T01870068  RH  046%=      5-min Rain = 0
KST3 251318Z 23013KT 19/07 A2996 RMK A01 T01880068  RH  046%=      5-min Rain = 0
KST3 251319Z 23011KT 19/07 A2996 RMK A01 T01880069  RH  046%=      5-min Rain = 0
KST3 251320Z 23012KT 19/07 A2996 RMK A01 T01880069  RH  046%=      5-min Rain = 0
KST3 251321Z 23012KT 19/07 A2996 RMK A01 T01890069  RH  046%=      5-min Rain = 0
KST3 251322Z 23011KT 19/07 A2996 RMK A01 T01890070  RH  046%=      5-min Rain = 0
KST3 251323Z 23012KT 19/07 A2996 RMK A01 T01900070  RH  046%=      5-min Rain = 0
KST3 251324Z 23012KT 19/07 A2996 RMK A01 T01910071  RH  046%=      5-min Rain = 0
KST3 251325Z 23012KT 19/07 A2996 RMK A01 T01920072  RH  046%=      5-min Rain = 0
KST3 251326Z 23012KT 19/07 A2996 RMK A01 T01920072  RH  045%=      5-min Rain = 0
KST3 251327Z 23012KT 19/07 A2996 RMK A01 T01930072  RH  045%=      5-min Rain = 0
KST3 251328Z 23013KT 19/07 A2996 RMK A01 T01940072  RH  045%=      5-min Rain = 0
KST3 251329Z 23012KT 20/07 A2996 RMK A01 T01950073  RH  045%=      5-min Rain = 0
KST3 251330Z 23012KT 20/07 A2996 RMK A01 T01960074  RH  045%=      5-min Rain = 0
KST3 251331Z 23013KT 20/07 A2996 RMK A01 T01960074  RH  045%=      5-min Rain = 0
KST3 251332Z 23012KT 20/07 A2996 RMK A01 T01970074  RH  045%=      5-min Rain = 0
KST3 251333Z 23012KT 20/07 A2996 RMK A01 T01980074  RH  045%=      5-min Rain = 0
KST3 251334Z 23012KT 20/08 A2997 RMK A01 T01980075  RH  045%=      5-min Rain = 0
KST3 251335Z 23012KT 20/08 A2997 RMK A01 T01990075  RH  045%=      5-min Rain = 0
KST3 251336Z 22012KT 20/08 A2997 RMK A01 T01990075  RH  045%=      5-min Rain = 0
KST3 251337Z 22011KT 20/08 A2997 RMK A01 T01990076  RH  045%=      5-min Rain = 0
KST3 251338Z 22011KT 20/08 A2997 RMK A01 T01990076  RH  045%=      5-min Rain = 0
KST3 251339Z 22011KT 20/08 A2997 RMK A01 T01990076  RH  045%=      5-min Rain = 0
KST3 251340Z 22012KT 20/08 A2997 RMK A01 T01990077  RH  045%=      5-min Rain = 0
KST3 251341Z 22011KT 20/08 A2997 RMK A01 T01990077  RH  045%=      5-min Rain = 0
KST3 251342Z 22012KT 20/08 A2997 RMK A01 T01990078  RH  046%=      5-min Rain = 0
KST3 251343Z 22011KT 20/08 A2997 RMK A01 T01990079  RH  046%=      5-min Rain = 0
KST3 251344Z 22011KT 20/08 A2997 RMK A01 T01980079  RH  046%=      5-min Rain = 0
KST3 251345Z 22011KT 20/08 A2997 RMK A01 T01980080  RH  046%=      5-min Rain = 0
KST3 251346Z 22011KT 20/08 A2997 RMK A01 T01990080  RH  046%=      5-min Rain = 0
KST3 251347Z 22011KT 20/08 A2997 RMK A01 T01990081  RH  046%=      5-min Rain = 0
KST3 251348Z 22011KT 20/08 A2997 RMK A01 T02000081  RH  046%=      5-min Rain = 0
KST3 251349Z 22012KT 20/08 A2997 RMK A01 T02000081  RH  046%=      5-min Rain = 0
KST3 251350Z 22013KT 20/08 A2997 RMK A01 T02010081  RH  046%=      5-min Rain = 0
KST3 251351Z 22010KT 20/08 A2997 RMK A01 T02010081  RH  046%=      5-min Rain = 0
KST3 251352Z 22011KT 20/08 A2997 RMK A01 T02020083  RH  046%=      5-min Rain = 0
KST3 251353Z 22011KT 20/08 A2997 RMK A01 T02020082  RH  046%=      5-min Rain = 0
KST3 251354Z 22011KT 20/08 A2997 RMK A01 T02030082  RH  046%=      5-min Rain = 0
KST3 251355Z 22012KT 20/08 A2997 RMK A01 T02030081  RH  045%=      5-min Rain = 0
KST3 251356Z 22011KT 20/08 A2997 RMK A01 T02040082  RH  045%=      5-min Rain = 0
KST3 251357Z 22009KT 21/08 A2997 RMK A01 T02050082  RH  045%=      5-min Rain = 0
KST3 251358Z 22010KT 21/08 A2997 RMK A01 T02050082  RH  045%=      5-min Rain = 0
KST3 251359Z 22011KT 21/08 A2997 RMK A01 T02060083  RH  045%=      5-min Rain = 0
KST3 251400Z 22012KT 21/08 A2997 RMK A01 T02060082  RH  045%=      5-min Rain = 0
KST3 251401Z 22012KT 21/08 A2997 RMK A01 T02070082  RH  044%=      5-min Rain = 0
KST3 251402Z 22012KT 21/08 A2997 RMK A01 T02070082  RH  044%=      5-min Rain = 0
KST3 251403Z 22012KT 21/08 A2997 RMK A01 T02080082  RH  044%=      5-min Rain = 0
KST3 251404Z 22012KT 21/08 A2997 RMK A01 T02080082  RH  044%=      5-min Rain = 0
KST3 251405Z 22011KT 21/08 A2997 RMK A01 T02080082  RH  044%=      5-min Rain = 0
KST3 251406Z 22012KT 21/08 A2997 RMK A01 T02090083  RH  044%=      5-min Rain = 0
KST3 251407Z 22011KT 21/08 A2997 RMK A01 T02100083  RH  044%=      5-min Rain = 0
KST3 251408Z 21011KT 21/08 A2997 RMK A01 T02100084  RH  044%=      5-min Rain = 0
KST3 251409Z 22011KT 21/08 A2997 RMK A01 T02110083  RH  044%=      5-min Rain = 0
KST3 251410Z 22011KT 21/08 A2997 RMK A01 T02120084  RH  044%=      5-min Rain = 0
KST3 251411Z 22011KT 21/08 A2997 RMK A01 T02130084  RH  043%=      5-min Rain = 0
KST3 251412Z 21009KT 21/08 A2997 RMK A01 T02140084  RH  043%=      5-min Rain = 0
KST3 251413Z 22012KT 22/09 A2997 RMK A01 T02150085  RH  043%=      5-min Rain = 0
KST3 251414Z 22012KT 22/08 A2997 RMK A01 T02160083  RH  042%=      5-min Rain = 0
KST3 251415Z 21012KT 22/08 A2997 RMK A01 T02160083  RH  043%=      5-min Rain = 0
KST3 251416Z 22012KT 22/08 A2997 RMK A01 T02170084  RH  043%=      5-min Rain = 0
KST3 251417Z 22011KT 22/08 A2997 RMK A01 T02170084  RH  042%=      5-min Rain = 0
KST3 251418Z 22013KT 22/09 A2997 RMK A01 T02180085  RH  043%=      5-min Rain = 0
KST3 251419Z 22013KT 22/09 A2997 RMK A01 T02180085  RH  042%=      5-min Rain = 0
KST3 251420Z 22012KT 22/08 A2997 RMK A01 T02190084  RH  042%=      5-min Rain = 0
KST3 251421Z 22013KT 22/08 A2997 RMK A01 T02190084  RH  042%=      5-min Rain = 0
KST3 251422Z 22013KT 22/08 A2997 RMK A01 T02190084  RH  042%=      5-min Rain = 0
KST3 251423Z 22011KT 22/09 A2997 RMK A01 T02190085  RH  042%=      5-min Rain = 0
KST3 251424Z 22013KT 22/09 A2997 RMK A01 T02200085  RH  042%=      5-min Rain = 0
KST3 251425Z 22011KT 22/09 A2997 RMK A01 T02210086  RH  042%=      5-min Rain = 0
KST3 251426Z 22011KT 22/09 A2997 RMK A01 T02210087  RH  042%=      5-min Rain = 0
KST3 251427Z 22013KT 22/09 A2997 RMK A01 T02220087  RH  042%=      5-min Rain = 0
KST3 251428Z 22012KT 22/09 A2997 RMK A01 T02220086  RH  042%=      5-min Rain = 0
KST3 251429Z 22011KT 22/09 A2998 RMK A01 T02230088  RH  042%=      5-min Rain = 0
KST3 251430Z 22012KT 22/09 A2998 RMK A01 T02240088  RH  042%=      5-min Rain = 0
KST3 251431Z 22014KT 23/09 A2997 RMK A01 T02250088  RH  042%=      5-min Rain = 0
KST3 251432Z 22013KT 23/09 A2998 RMK A01 T02260088  RH  041%=      5-min Rain = 0
KST3 251433Z 22013KT 23/09 A2997 RMK A01 T02270089  RH  041%=      5-min Rain = 0
KST3 251434Z 22011KT 23/09 A2997 RMK A01 T02290089  RH  041%=      5-min Rain = 0
KST3 251435Z 22011KT 23/09 A2997 RMK A01 T02300091  RH  041%=      5-min Rain = 0
KST3 251436Z 23015KT 23/09 A2997 RMK A01 T02310090  RH  040%=      5-min Rain = 0
KST3 251437Z 23015KT 23/09 A2997 RMK A01 T02310089  RH  040%=      5-min Rain = 0
KST3 251438Z 23016KT 23/09 A2997 RMK A01 T02310089  RH  040%=      5-min Rain = 0
KST3 251439Z 23016KT 23/09 A2997 RMK A01 T02310089  RH  040%=      5-min Rain = 0
KST3 251440Z 22015KT 23/09 A2997 RMK A01 T02310090  RH  040%=      5-min Rain = 0
KST3 251441Z 22013KT 23/09 A2997 RMK A01 T02320090  RH  040%=      5-min Rain = 0
KST3 251442Z 22011KT 23/09 A2997 RMK A01 T02330091  RH  041%=      5-min Rain = 0
KST3 251443Z 22013KT 23/09 A2997 RMK A01 T02340092  RH  040%=      5-min Rain = 0
KST3 251444Z 22013KT 24/09 A2997 RMK A01 T02350092  RH  040%=      5-min Rain = 0
KST3 251445Z 22012KT 24/09 A2997 RMK A01 T02350092  RH  040%=      5-min Rain = 0
KST3 251446Z 22015KT 24/09 A2997 RMK A01 T02360093  RH  040%=      5-min Rain = 0
KST3 251447Z 22016KT 24/09 A2997 RMK A01 T02370091  RH  039%=      5-min Rain = 0
KST3 251448Z 22016KT 24/09 A2997 RMK A01 T02370092  RH  040%=      5-min Rain = 0
KST3 251449Z 22016KT 24/09 A2997 RMK A01 T02370091  RH  040%=      5-min Rain = 0
KST3 251450Z 22016KT 24/09 A2997 RMK A01 T02370092  RH  040%=      5-min Rain = 0
KST3 251451Z 22016KT 24/09 A2997 RMK A01 T02380092  RH  040%=      5-min Rain = 0
KST3 251452Z 22016KT 24/09 A2997 RMK A01 T02380092  RH  040%=      5-min Rain = 0
KST3 251453Z 22016KT 24/09 A2997 RMK A01 T02380094  RH  040%=      5-min Rain = 0
KST3 251454Z 22016KT 24/09 A2997 RMK A01 T02390093  RH  040%=      5-min Rain = 0
KST3 251455Z 23015KT 24/09 A2998 RMK A01 T02390094  RH  040%=      5-min Rain = 0
KST3 251456Z 23014KT 24/10 A2998 RMK A01 T02390095  RH  040%=      5-min Rain = 0
KST3 251457Z 22014KT 24/10 A2997 RMK A01 T02410096  RH  040%=      5-min Rain = 0
KST3 251458Z 22016KT 24/10 A2997 RMK A01 T02420097  RH  040%=      5-min Rain = 0
KST3 251459Z 22013KT 24/10 A2998 RMK A01 T02420097  RH  040%=      5-min Rain = 0
KST3 251500Z 22015KT 24/10 A2998 RMK A01 T02430097  RH  040%=      5-min Rain = 0
KST3 251501Z 21015KT 24/10 A2997 RMK A01 T02430097  RH  040%=      5-min Rain = 0
KST3 251502Z 21014KT 24/10 A2998 RMK A01 T02430098  RH  040%=      5-min Rain = 0
KST3 251503Z 22013KT 24/10 A2998 RMK A01 T02430098  RH  040%=      5-min Rain = 0
KST3 251504Z 22012KT 24/10 A2998 RMK A01 T02440099  RH  040%=      5-min Rain = 0
KST3 251505Z 21011KT 25/10 A2998 RMK A01 T02450101  RH  040%=      5-min Rain = 0
KST3 251506Z 21016KT 25/10 A2998 RMK A01 T02470100  RH  040%=      5-min Rain = 0
KST3 251507Z 21015KT 25/10 A2998 RMK A01 T02460099  RH  039%=      5-min Rain = 0
KST3 251508Z 22014KT 25/10 A2998 RMK A01 T02460100  RH  040%=      5-min Rain = 0
KST3 251509Z 21016KT 25/10 A2998 RMK A01 T02460099  RH  040%=      5-min Rain = 0
KST3 251510Z 21015KT 25/10 A2998 RMK A01 T02460098  RH  039%=      5-min Rain = 0
KST3 251511Z 21014KT 25/10 A2998 RMK A01 T02460100  RH  040%=      5-min Rain = 0
KST3 251512Z 21014KT 25/10 A2998 RMK A01 T02470100  RH  039%=      5-min Rain = 0
KST3 251513Z 21015KT 25/10 A2998 RMK A01 T02470100  RH  039%=      5-min Rain = 0
KST3 251514Z 21015KT 25/10 A2998 RMK A01 T02470099  RH  039%=      5-min Rain = 0
KST3 251515Z 21015KT 25/10 A2998 RMK A01 T02470099  RH  039%=      5-min Rain = 0
KST3 251516Z 21013KT 25/10 A2998 RMK A01 T02480100  RH  039%=      5-min Rain = 0
KST3 251517Z 22013KT 25/10 A2998 RMK A01 T02500101  RH  039%=      5-min Rain = 0
KST3 251518Z 22014KT 25/10 A2998 RMK A01 T02510102  RH  039%=      5-min Rain = 0
KST3 251519Z 22014KT 25/10 A2998 RMK A01 T02510100  RH  038%=      5-min Rain = 0
KST3 251520Z 22012KT 25/10 A2998 RMK A01 T02510101  RH  039%=      5-min Rain = 0
KST3 251521Z 22011KT 25/10 A2998 RMK A01 T02510103  RH  039%=      5-min Rain = 0
KST3 251522Z 22013KT 25/10 A2998 RMK A01 T02530102  RH  039%=      5-min Rain = 0
KST3 251523Z 21011KT 25/10 A2998 RMK A01 T02530102  RH  038%=      5-min Rain = 0
KST3 251524Z 21011KT 25/10 A2998 RMK A01 T02540103  RH  039%=      5-min Rain = 0
KST3 251525Z 22015KT 26/10 A2998 RMK A01 T02560103  RH  038%=      5-min Rain = 0
KST3 251526Z 22014KT 26/10 A2998 RMK A01 T02560099  RH  037%=      5-min Rain = 0
KST3 251527Z 22013KT 25/10 A2998 RMK A01 T02540101  RH  038%=      5-min Rain = 0
KST3 251528Z 22014KT 26/10 A2998 RMK A01 T02550100  RH  038%=      5-min Rain = 0
KST3 251529Z 22014KT 26/10 A2998 RMK A01 T02550101  RH  038%=      5-min Rain = 0
KST3 251530Z 22015KT 26/10 A2998 RMK A01 T02550100  RH  037%=      5-min Rain = 0
KST3 251531Z 22013KT 26/10 A2998 RMK A01 T02550100  RH  038%=      5-min Rain = 0
KST3 251532Z 22015KT 26/10 A2998 RMK A01 T02550100  RH  038%=      5-min Rain = 0
KST3 251533Z 22013KT 26/10 A2998 RMK A01 T02550099  RH  037%=      5-min Rain = 0
KST3 251534Z 22014KT 26/10 A2998 RMK A01 T02560102  RH  038%=      5-min Rain = 0
KST3 251535Z 22011KT 26/10 A2998 RMK A01 T02570101  RH  038%=      5-min Rain = 0
KST3 251536Z 22014KT 26/10 A2998 RMK A01 T02580102  RH  037%=      5-min Rain = 0
KST3 251537Z 22013KT 26/10 A2998 RMK A01 T02600101  RH  037%=      5-min Rain = 0
KST3 251538Z 23013KT 26/10 A2998 RMK A01 T02600101  RH  037%=      5-min Rain = 0
KST3 251539Z 23014KT 26/10 A2998 RMK A01 T02610100  RH  036%=      5-min Rain = 0
KST3 251540Z 22011KT 26/10 A2998 RMK A01 T02610101  RH  037%=      5-min Rain = 0
KST3 251541Z 21009KT 26/10 A2998 RMK A01 T02620104  RH  037%=      5-min Rain = 0
KST3 251542Z 22012KT 26/10 A2998 RMK A01 T02630104  RH  037%=      5-min Rain = 0
KST3 251543Z 21010KT 27/10 A2998 RMK A01 T02650104  RH  036%=      5-min Rain = 0
KST3 251544Z 22013KT 27/10 A2997 RMK A01 T02680104  RH  036%=      5-min Rain = 0
KST3 251545Z 22013KT 27/10 A2997 RMK A01 T02670102  RH  036%=      5-min Rain = 0
KST3 251546Z 22012KT 27/10 A2998 RMK A01 T02660103  RH  036%=      5-min Rain = 0
KST3 251547Z 21011KT 27/11 A2997 RMK A01 T02670105  RH  036%=      5-min Rain = 0
KST3 251548Z 21014KT 27/11 A2997 RMK A01 T02700105  RH  036%=      5-min Rain = 0
KST3 251549Z 22012KT 27/10 A2997 RMK A01 T02700103  RH  035%=      5-min Rain = 0
KST3 251550Z 23012KT 27/10 A2998 RMK A01 T02690103  RH  035%=      5-min Rain = 0
KST3 251551Z 23011KT 27/10 A2998 RMK A01 T02680104  RH  036%=      5-min Rain = 0
KST3 251552Z 23012KT 27/10 A2998 RMK A01 T02690104  RH  035%=      5-min Rain = 0
KST3 251553Z 23011KT 27/10 A2998 RMK A01 T02690104  RH  036%=      5-min Rain = 0
KST3 251554Z 22013KT 27/10 A2997 RMK A01 T02700104  RH  035%=      5-min Rain = 0
KST3 251555Z 22013KT 27/10 A2998 RMK A01 T02700104  RH  035%=      5-min Rain = 0
KST3 251556Z 22010KT 27/10 A2997 RMK A01 T02700104  RH  035%=      5-min Rain = 0
KST3 251557Z 22010KT 27/10 A2998 RMK A01 T02710104  RH  035%=      5-min Rain = 0
KST3 251558Z 21009KT 27/11 A2997 RMK A01 T02710107  RH  036%=      5-min Rain = 0
KST3 251559Z 21013KT 27/11 A2997 RMK A01 T02720107  RH  036%=      5-min Rain = 0
KST3 251600Z 22012KT 27/11 A2997 RMK A01 T02730105  RH  035%=      5-min Rain = 0
KST3 251601Z 21012KT 27/11 A2997 RMK A01 T02730105  RH  035%=      5-min Rain = 0
KST3 251602Z 22012KT 27/11 A2997 RMK A01 T02720105  RH  035%=      5-min Rain = 0
KST3 251603Z 21013KT 27/11 A2997 RMK A01 T02720105  RH  035%=      5-min Rain = 0
KST3 251604Z 22011KT 27/11 A2997 RMK A01 T02730106  RH  035%=      5-min Rain = 0
KST3 251605Z 21012KT 27/11 A2997 RMK A01 T02740105  RH  035%=      5-min Rain = 0
KST3 251606Z 21010KT 27/11 A2997 RMK A01 T02740108  RH  035%=      5-min Rain = 0
KST3 251607Z 21011KT 28/11 A2997 RMK A01 T02760109  RH  035%=      5-min Rain = 0
KST3 251608Z 21011KT 28/11 A2997 RMK A01 T02770109  RH  035%=      5-min Rain = 0
KST3 251609Z 21011KT 28/11 A2997 RMK A01 T02780109  RH  035%=      5-min Rain = 0
KST3 251610Z 22012KT 28/11 A2997 RMK A01 T02790108  RH  034%=      5-min Rain = 0
KST3 251611Z 22012KT 28/11 A2997 RMK A01 T02790106  RH  034%=      5-min Rain = 0
KST3 251612Z 22012KT 28/11 A2997 RMK A01 T02780106  RH  034%=      5-min Rain = 0
KST3 251613Z 22012KT 28/11 A2997 RMK A01 T02790107  RH  034%=      5-min Rain = 0
KST3 251614Z 22010KT 28/11 A2997 RMK A01 T02790107  RH  034%=      5-min Rain = 0
KST3 251615Z 21011KT 28/11 A2997 RMK A01 T02810110  RH  035%=      5-min Rain = 0
KST3 251616Z 21011KT 28/11 A2997 RMK A01 T02840109  RH  034%=      5-min Rain = 0
KST3 251617Z 22013KT 28/11 A2997 RMK A01 T02840109  RH  034%=      5-min Rain = 0
KST3 251618Z 22015KT 29/11 A2997 RMK A01 T02850106  RH  033%=      5-min Rain = 0
KST3 251619Z 23013KT 28/11 A2997 RMK A01 T02840106  RH  033%=      5-min Rain = 0
KST3 251620Z 21014KT 28/11 A2997 RMK A01 T02830107  RH  033%=      5-min Rain = 0
KST3 251621Z 21013KT 28/11 A2997 RMK A01 T02830106  RH  033%=      5-min Rain = 0
KST3 251622Z 21013KT 28/11 A2997 RMK A01 T02830106  RH  033%=      5-min Rain = 0
KST3 251623Z 22012KT 28/11 A2997 RMK A01 T02840109  RH  034%=      5-min Rain = 0
KST3 251624Z 22010KT 29/11 A2997 RMK A01 T02860109  RH  033%=      5-min Rain = 0
KST3 251625Z 21012KT 29/11 A2997 RMK A01 T02860110  RH  033%=      5-min Rain = 0
KST3 251626Z 21012KT 29/11 A2997 RMK A01 T02880110  RH  033%=      5-min Rain = 0
KST3 251627Z 21013G18KT 29/11 A2997 RMK A01 T02880110  RH  033%=      5-min Rain = 0
KST3 251628Z 21013KT 29/11 A2997 RMK A01 T02890106  RH  032%=      5-min Rain = 0
KST3 251629Z 21012KT 29/11 A2997 RMK A01 T02890109  RH  033%=      5-min Rain = 0
KST3 251630Z 21013KT 29/11 A2997 RMK A01 T02900107  RH  032%=      5-min Rain = 0
KST3 251631Z 22013KT 29/11 A2997 RMK A01 T02890108  RH  032%=      5-min Rain = 0
KST3 251632Z 22012KT 29/11 A2997 RMK A01 T02880108  RH  033%=      5-min Rain = 0
KST3 251633Z 23012KT 29/11 A2997 RMK A01 T02890110  RH  033%=      5-min Rain = 0
KST3 251634Z 21012KT 29/11 A2997 RMK A01 T02920109  RH  032%=      5-min Rain = 0
KST3 251635Z 20012KT 29/11 A2997 RMK A01 T02920110  RH  032%=      5-min Rain = 0
KST3 251636Z 21014KT 29/11 A2997 RMK A01 T02920110  RH  032%=      5-min Rain = 0
KST3 251637Z 21013KT 29/11 A2997 RMK A01 T02910110  RH  032%=      5-min Rain = 0
KST3 251638Z 21011KT 29/11 A2997 RMK A01 T02920111  RH  033%=      5-min Rain = 0
KST3 251639Z 21010G17KT 29/11 A2997 RMK A01 T02920113  RH  033%=      5-min Rain = 0
KST3 251640Z 21013KT 29/11 A2997 RMK A01 T02940109  RH  032%=      5-min Rain = 0
KST3 251641Z 22010KT 29/11 A2997 RMK A01 T02940110  RH  032%=      5-min Rain = 0
KST3 251642Z 21011KT 30/11 A2997 RMK A01 T02960111  RH  032%=      5-min Rain = 0
KST3 251643Z 21010KT 30/11 A2997 RMK A01 T02990113  RH  032%=      5-min Rain = 0
KST3 251644Z 21012G17KT 30/11 A2997 RMK A01 T03020112  RH  031%=      5-min Rain = 0
KST3 251645Z 21015KT 30/11 A2997 RMK A01 T03030109  RH  030%=      5-min Rain = 0
KST3 251646Z 21014KT 30/11 A2997 RMK A01 T03000107  RH  030%=      5-min Rain = 0
KST3 251647Z 20014KT 30/11 A2997 RMK A01 T02990108  RH  031%=      5-min Rain = 0
KST3 251648Z 20015G20KT 30/11 A2996 RMK A01 T02980106  RH  030%=      5-min Rain = 0
KST3 251649Z 21015KT 30/11 A2996 RMK A01 T02980106  RH  030%=      5-min Rain = 0
KST3 251650Z 22013KT 30/11 A2997 RMK A01 T02970106  RH  031%=      5-min Rain = 0
KST3 251651Z 21015KT 30/11 A2996 RMK A01 T02990107  RH  030%=      5-min Rain = 0
KST3 251652Z 21014KT 30/11 A2996 RMK A01 T02990105  RH  030%=      5-min Rain = 0
KST3 251653Z 21015KT 30/11 A2996 RMK A01 T03000106  RH  030%=      5-min Rain = 0
KST3 251654Z 22016KT 30/10 A2996 RMK A01 T03020104  RH  029%=      5-min Rain = 0
KST3 251655Z 22015KT 30/11 A2996 RMK A01 T03000105  RH  030%=      5-min Rain = 0
KST3 251656Z 22016KT 30/11 A2996 RMK A01 T03000106  RH  030%=      5-min Rain = 0
KST3 251657Z 22017KT 30/10 A2996 RMK A01 T03000104  RH  030%=      5-min Rain = 0
KST3 251658Z 21013KT 30/10 A2996 RMK A01 T03020103  RH  029%=      5-min Rain = 0
KST3 251659Z 22017KT 31/10 A2996 RMK A01 T03050104  RH  029%=      5-min Rain = 0
KST3 251700Z 21015KT 31/10 A2996 RMK A01 T03050104  RH  029%=      5-min Rain = 0
KST3 251701Z 21019KT 31/10 A2996 RMK A01 T03060102  RH  028%=      5-min Rain = 0
KST3 251702Z 21019KT 31/10 A2996 RMK A01 T03060101  RH  028%=      5-min Rain = 0
KST3 251703Z 21018KT 31/10 A2996 RMK A01 T03050101  RH  028%=      5-min Rain = 0
KST3 251704Z 22018KT 31/10 A2996 RMK A01 T03050101  RH  028%=      5-min Rain = 0
KST3 251705Z 21017KT 31/10 A2996 RMK A01 T03060101  RH  028%=      5-min Rain = 0
KST3 251706Z 21017KT 31/10 A2996 RMK A01 T03070100  RH  028%=      5-min Rain = 0
KST3 251707Z 21018KT 31/10 A2996 RMK A01 T03080099  RH  027%=      5-min Rain = 0
KST3 251708Z 21015KT 31/10 A2996 RMK A01 T03070100  RH  028%=      5-min Rain = 0
KST3 251709Z 22014KT 31/10 A2996 RMK A01 T03080100  RH  028%=      5-min Rain = 0
KST3 251710Z 21014KT 31/10 A2996 RMK A01 T03080102  RH  028%=      5-min Rain = 0
KST3 251711Z 21014KT 31/10 A2996 RMK A01 T03100102  RH  028%=      5-min Rain = 0
KST3 251712Z 22018KT 32/10 A2996 RMK A01 T03150104  RH  027%=      5-min Rain = 0
KST3 251713Z 22016KT 32/10 A2996 RMK A01 T03150101  RH  027%=      5-min Rain = 0
KST3 251714Z 21016KT 32/10 A2996 RMK A01 T03150103  RH  027%=      5-min Rain = 0
KST3 251715Z 23016KT 32/10 A2996 RMK A01 T03150101  RH  027%=      5-min Rain = 0
KST3 251716Z 22016G21KT 31/10 A2996 RMK A01 T03140102  RH  027%=      5-min Rain = 0
KST3 251717Z 21017KT 32/10 A2996 RMK A01 T03150101  RH  027%=      5-min Rain = 0
KST3 251718Z 22016KT 32/10 A2996 RMK A01 T03160100  RH  026%=      5-min Rain = 0
KST3 251719Z 22018KT 32/10 A2996 RMK A01 T03170098  RH  026%=      5-min Rain = 0
KST3 251720Z 21018KT 32/10 A2996 RMK A01 T03150097  RH  026%=      5-min Rain = 0
KST3 251721Z 21017KT 31/10 A2996 RMK A01 T03140098  RH  026%=      5-min Rain = 0
KST3 251722Z 20017KT 31/10 A2996 RMK A01 T03140098  RH  026%=      5-min Rain = 0
KST3 251723Z 21015KT 31/10 A2996 RMK A01 T03140099  RH  027%=      5-min Rain = 0
KST3 251724Z 21016KT 32/10 A2996 RMK A01 T03160102  RH  027%=      5-min Rain = 0
KST3 251725Z 21013KT 32/10 A2996 RMK A01 T03180099  RH  026%=      5-min Rain = 0
KST3 251726Z 21015KT 32/10 A2995 RMK A01 T03180101  RH  026%=      5-min Rain = 0
KST3 251727Z 22016KT 32/10 A2995 RMK A01 T03200098  RH  026%=      5-min Rain = 0
KST3 251728Z 21017KT 32/10 A2995 RMK A01 T03180099  RH  026%=      5-min Rain = 0
KST3 251729Z 22016KT 32/10 A2995 RMK A01 T03180100  RH  026%=      5-min Rain = 0
KST3 251730Z 21018KT 32/10 A2995 RMK A01 T03180098  RH  026%=      5-min Rain = 0
KST3 251731Z 21016KT 32/10 A2995 RMK A01 T03200098  RH  026%=      5-min Rain = 0
KST3 251732Z 21017KT 32/10 A2995 RMK A01 T03210098  RH  025%=      5-min Rain = 0
KST3 251733Z 22016KT 32/10 A2995 RMK A01 T03200098  RH  025%=      5-min Rain = 0
KST3 251734Z 21014KT 32/10 A2995 RMK A01 T03190096  RH  025%=      5-min Rain = 0
KST3 251735Z 21014G20KT 32/10 A2995 RMK A01 T03200099  RH  026%=      5-min Rain = 0
KST3 251736Z 20013KT 32/10 A2995 RMK A01 T03240100  RH  025%=      5-min Rain = 0
KST3 251737Z 20015KT 33/10 A2995 RMK A01 T03260099  RH  025%=      5-min Rain = 0
KST3 251738Z 20014KT 33/10 A2995 RMK A01 T03260098  RH  025%=      5-min Rain = 0
KST3 251739Z 21017KT 33/10 A2995 RMK A01 T03250098  RH  025%=      5-min Rain = 0
KST3 251740Z 22015KT 33/10 A2995 RMK A01 T03250096  RH  024%=      5-min Rain = 0
KST3 251741Z 22018G23KT 33/10 A2995 RMK A01 T03260098  RH  025%=      5-min Rain = 0
KST3 251742Z 21017KT 33/10 A2995 RMK A01 T03250096  RH  024%=      5-min Rain = 0
KST3 251743Z 21019KT 32/10 A2995 RMK A01 T03230097  RH  025%=      5-min Rain = 0
KST3 251744Z 20017KT 32/10 A2995 RMK A01 T03240098  RH  025%=      5-min Rain = 0
KST3 251745Z 20014KT 32/10 A2995 RMK A01 T03240098  RH  025%=      5-min Rain = 0
KST3 251746Z 22017KT 33/10 A2995 RMK A01 T03250100  RH  025%=      5-min Rain = 0
KST3 251747Z 22016KT 33/10 A2995 RMK A01 T03260096  RH  024%=      5-min Rain = 0
KST3 251748Z 22015KT 33/10 A2995 RMK A01 T03270100  RH  025%=      5-min Rain = 0
KST3 251749Z 22016G22KT 33/10 A2995 RMK A01 T03310102  RH  025%=      5-min Rain = 0
KST3 251750Z 22015KT 33/10 A2995 RMK A01 T03320099  RH  024%=      5-min Rain = 0
KST3 251751Z 22014G19KT 33/10 A2995 RMK A01 T03280099  RH  025%=      5-min Rain = 0
KST3 251752Z 22018KT 33/10 A2994 RMK A01 T03290099  RH  024%=      5-min Rain = 0
KST3 251753Z 22019KT 33/10 A2994 RMK A01 T03300096  RH  024%=      5-min Rain = 0
KST3 251754Z 20017KT 33/10 A2994 RMK A01 T03290096  RH  024%=      5-min Rain = 0
KST3 251755Z 21018KT 33/10 A2994 RMK A01 T03290096  RH  024%=      5-min Rain = 0
KST3 251756Z 21016KT 33/10 A2994 RMK A01 T03310095  RH  023%=      5-min Rain = 0
KST3 251757Z 22016KT 33/10 A2994 RMK A01 T03310095  RH  023%=      5-min Rain = 0
KST3 251758Z 21015KT 33/10 A2994 RMK A01 T03320096  RH  023%=      5-min Rain = 0
KST3 251759Z 22014KT 34/10 A2994 RMK A01 T03350096  RH  023%=      5-min Rain = 0
KST3 251800Z 22017KT 34/09 A2994 RMK A01 T03370093  RH  022%=      5-min Rain = 0
KST3 251801Z 21014G19KT 34/09 A2994 RMK A01 T03370093  RH  022%=      5-min Rain = 0
KST3 251802Z 20017KT 34/09 A2994 RMK A01 T03370089  RH  022%=      5-min Rain = 0
KST3 251803Z 21014KT 34/09 A2994 RMK A01 T03380088  RH  022%=      5-min Rain = 0
KST3 251804Z 20016KT 34/09 A2994 RMK A01 T03370089  RH  022%=      5-min Rain = 0
KST3 251805Z 20014KT 34/09 A2994 RMK A01 T03350088  RH  022%=      5-min Rain = 0
KST3 251806Z 22016G21KT 34/09 A2994 RMK A01 T03360087  RH  022%=      5-min Rain = 0
KST3 251807Z 22017G22KT 34/08 A2994 RMK A01 T03380082  RH  021%=      5-min Rain = 0
KST3 251808Z 22016KT 34/09 A2994 RMK A01 T03370085  RH  021%=      5-min Rain = 0
KST3 251809Z 21017G23KT 34/08 A2994 RMK A01 T03410084  RH  021%=      5-min Rain = 0
KST3 251810Z 21020KT 34/08 A2994 RMK A01 T03430080  RH  020%=      5-min Rain = 0
KST3 251811Z 22021KT 34/08 A2994 RMK A01 T03410076  RH  020%=      5-min Rain = 0
KST3 251812Z 21018KT 34/08 A2994 RMK A01 T03400075  RH  020%=      5-min Rain = 0
KST3 251813Z 20017KT 34/08 A2993 RMK A01 T03420080  RH  020%=      5-min Rain = 0
KST3 251814Z 20018KT 34/08 A2993 RMK A01 T03430082  RH  020%=      5-min Rain = 0
KST3 251815Z 20016KT 34/08 A2993 RMK A01 T03420081  RH  020%=      5-min Rain = 0
KST3 251816Z 21014KT 34/08 A2993 RMK A01 T03420084  RH  020%=      5-min Rain = 0
KST3 251817Z 21014KT 35/09 A2993 RMK A01 T03450086  RH  020%=      5-min Rain = 0
KST3 251818Z 21018KT 35/09 A2993 RMK A01 T03470086  RH  020%=      5-min Rain = 0
KST3 251819Z 22019KT 35/08 A2993 RMK A01 T03470083  RH  020%=      5-min Rain = 0
KST3 251820Z 22018KT 35/08 A2993 RMK A01 T03460080  RH  020%=      5-min Rain = 0
KST3 251821Z 22020KT 34/08 A2993 RMK A01 T03430078  RH  020%=      5-min Rain = 0
KST3 251822Z 23016KT 34/08 A2993 RMK A01 T03430079  RH  020%=      5-min Rain = 0
KST3 251823Z 22016KT 34/08 A2993 RMK A01 T03440080  RH  020%=      5-min Rain = 0
KST3 251824Z 22018KT 35/08 A2993 RMK A01 T03460077  RH  019%=      5-min Rain = 0
KST3 251825Z 23017KT 35/08 A2993 RMK A01 T03470075  RH  019%=      5-min Rain = 0
KST3 251826Z 21019KT 35/08 A2993 RMK A01 T03480075  RH  019%=      5-min Rain = 0
KST3 251827Z 22016KT 35/08 A2993 RMK A01 T03470078  RH  019%=      5-min Rain = 0
KST3 251828Z 23016KT 35/08 A2993 RMK A01 T03470079  RH  019%=      5-min Rain = 0
KST3 251829Z 23018KT 35/08 A2993 RMK A01 T03460077  RH  019%=      5-min Rain = 0
KST3 251830Z 22018KT 35/08 A2993 RMK A01 T03450078  RH  019%=      5-min Rain = 0
KST3 251831Z 22017KT 35/08 A2993 RMK A01 T03460077  RH  019%=      5-min Rain = 0
KST3 251832Z 22015KT 35/08 A2993 RMK A01 T03460079  RH  019%=      5-min Rain = 0
KST3 251833Z 22014KT 35/08 A2993 RMK A01 T03450076  RH  019%=      5-min Rain = 0
KST3 251834Z 21015G23KT 35/08 A2993 RMK A01 T03460078  RH  019%=      5-min Rain = 0
KST3 251835Z 21019KT 35/07 A2993 RMK A01 T03480074  RH  019%=      5-min Rain = 0
KST3 251836Z 20020KT 35/07 A2993 RMK A01 T03480072  RH  018%=      5-min Rain = 0
KST3 251837Z 20016KT 35/07 A2993 RMK A01 T03480070  RH  018%=      5-min Rain = 0
KST3 251838Z 20015KT 35/07 A2993 RMK A01 T03470070  RH  018%=      5-min Rain = 0
KST3 251839Z 19016G21KT 35/07 A2992 RMK A01 T03470068  RH  018%=      5-min Rain = 0
KST3 251840Z 20018KT 35/07 A2992 RMK A01 T03460069  RH  018%=      5-min Rain = 0
KST3 251841Z 20016KT 35/07 A2992 RMK A01 T03470067  RH  018%=      5-min Rain = 0
KST3 251842Z 21015KT 35/07 A2992 RMK A01 T03480069  RH  018%=      5-min Rain = 0
KST3 251843Z 23015KT 35/07 A2992 RMK A01 T03500069  RH  018%=      5-min Rain = 0
KST3 251844Z 22017KT 35/07 A2992 RMK A01 T03510070  RH  018%=      5-min Rain = 0
KST3 251845Z 20015KT 35/07 A2992 RMK A01 T03520068  RH  017%=      5-min Rain = 0
KST3 251846Z 21018KT 35/07 A2992 RMK A01 T03520067  RH  017%=      5-min Rain = 0
KST3 251847Z 23019KT 35/07 A2992 RMK A01 T03530067  RH  017%=      5-min Rain = 0
KST3 251848Z 23014KT 35/07 A2992 RMK A01 T03520066  RH  017%=      5-min Rain = 0
KST3 251849Z 22010KT 35/07 A2992 RMK A01 T03540071  RH  018%=      5-min Rain = 0
KST3 251850Z 22013G18KT 36/07 A2992 RMK A01 T03580072  RH  017%=      5-min Rain = 0
KST3 251851Z 22021KT 36/07 A2992 RMK A01 T03620069  RH  017%=      5-min Rain = 0
KST3 251852Z 20017KT 36/06 A2991 RMK A01 T03600062  RH  016%=      5-min Rain = 0
KST3 251853Z 22017G23KT 35/06 A2991 RMK A01 T03540061  RH  016%=      5-min Rain = 0
KST3 251854Z 22019KT 35/06 A2991 RMK A01 T03530061  RH  016%=      5-min Rain = 0
KST3 251855Z 23020G26KT 35/06 A2991 RMK A01 T03520062  RH  017%=      5-min Rain = 0
KST3 251856Z 23020G25KT 35/06 A2991 RMK A01 T03520062  RH  017%=      5-min Rain = 0
KST3 251857Z 23019KT 35/06 A2991 RMK A01 T03510063  RH  017%=      5-min Rain = 0
KST3 251858Z 22019KT 35/06 A2991 RMK A01 T03510064  RH  017%=      5-min Rain = 0
KST3 251859Z 21019KT 35/06 A2991 RMK A01 T03520064  RH  017%=      5-min Rain = 0
KST3 251900Z 21019KT 35/06 A2991 RMK A01 T03520064  RH  017%=      5-min Rain = 0
KST3 251901Z 21014KT 35/07 A2991 RMK A01 T03510065  RH  017%=      5-min Rain = 0
KST3 251902Z 22016G21KT 35/07 A2991 RMK A01 T03500065  RH  017%=      5-min Rain = 0
KST3 251903Z 23016KT 35/06 A2991 RMK A01 T03510064  RH  017%=      5-min Rain = 0
KST3 251904Z 22016G21KT 35/07 A2991 RMK A01 T03540065  RH  017%=      5-min Rain = 0
KST3 251905Z 23019KT 36/07 A2991 RMK A01 T03560065  RH  017%=      5-min Rain = 0
KST3 251906Z 22016KT 36/07 A2991 RMK A01 T03570066  RH  017%=      5-min Rain = 0
KST3 251907Z 23020KT 36/07 A2991 RMK A01 T03590065  RH  016%=      5-min Rain = 0
KST3 251908Z 23016KT 36/06 A2991 RMK A01 T03550062  RH  016%=      5-min Rain = 0
KST3 251909Z 23014KT 35/07 A2991 RMK A01 T03500065  RH  017%=      5-min Rain = 0
KST3 251910Z 23014KT 35/07 A2991 RMK A01 T03520069  RH  017%=      5-min Rain = 0
KST3 251911Z 21012KT 36/07 A2991 RMK A01 T03570073  RH  017%=      5-min Rain = 0
KST3 251912Z 21016KT 36/07 A2991 RMK A01 T03610069  RH  017%=      5-min Rain = 0
KST3 251913Z 22017KT 36/07 A299 RMK A01 T03600068  RH  017%=      5-min Rain = 0
KST3 251914Z 22019G24KT 36/07 A299 RMK A01 T03590067  RH  017%=      5-min Rain = 0
KST3 251915Z 22019KT 36/06 A299 RMK A01 T03570058  RH  016%=      5-min Rain = 0
KST3 251916Z 20015KT 36/06 A299 RMK A01 T03580062  RH  016%=      5-min Rain = 0
KST3 251917Z 20016KT 36/06 A299 RMK A01 T03590061  RH  016%=      5-min Rain = 0
KST3 251918Z 22014KT 36/06 A299 RMK A01 T03580059  RH  016%=      5-min Rain = 0
KST3 251919Z 22017KT 36/06 A299 RMK A01 T03580064  RH  016%=      5-min Rain = 0
KST3 251920Z 22020G25KT 36/06 A299 RMK A01 T03600061  RH  016%=      5-min Rain = 0
KST3 251921Z 22017KT 36/06 A299 RMK A01 T03570058  RH  016%=      5-min Rain = 0
KST3 251922Z 22015KT 36/06 A299 RMK A01 T03570058  RH  016%=      5-min Rain = 0
KST3 251923Z 23017KT 36/06 A299 RMK A01 T03560058  RH  016%=      5-min Rain = 0
KST3 251924Z 22017G22KT 36/06 A299 RMK A01 T03560059  RH  016%=      5-min Rain = 0
KST3 251925Z 20015KT 36/06 A299 RMK A01 T03580061  RH  016%=      5-min Rain = 0
KST3 251926Z 21013KT 36/07 A299 RMK A01 T03610065  RH  016%=      5-min Rain = 0
KST3 251927Z 21015KT 36/07 A299 RMK A01 T03630065  RH  016%=      5-min Rain = 0
KST3 251928Z 21020KT 37/06 A299 RMK A01 T03650059  RH  015%=      5-min Rain = 0
KST3 251929Z 22018KT 36/05 A299 RMK A01 T03620053  RH  015%=      5-min Rain = 0
KST3 251930Z 21017KT 36/05 A299 RMK A01 T03590054  RH  015%=      5-min Rain = 0
KST3 251931Z 22017KT 36/05 A2989 RMK A01 T03570053  RH  015%=      5-min Rain = 0
KST3 251932Z 22017KT 36/06 A2989 RMK A01 T03560057  RH  016%=      5-min Rain = 0
KST3 251933Z 21015KT 36/06 A2989 RMK A01 T03580057  RH  016%=      5-min Rain = 0
KST3 251934Z 22014KT 36/06 A2989 RMK A01 T03610060  RH  016%=      5-min Rain = 0
KST3 251935Z 22018KT 36/06 A2989 RMK A01 T03620061  RH  016%=      5-min Rain = 0
KST3 251936Z 22019KT 36/06 A2989 RMK A01 T03630056  RH  015%=      5-min Rain = 0
KST3 251937Z 22021KT 36/06 A2989 RMK A01 T03620057  RH  015%=      5-min Rain = 0
KST3 251938Z 22018KT 36/06 A2989 RMK A01 T03610059  RH  016%=      5-min Rain = 0
KST3 251939Z 22018KT 36/06 A2989 RMK A01 T03580059  RH  016%=      5-min Rain = 0
KST3 251940Z 24014KT 36/06 A2989 RMK A01 T03570060  RH  016%=      5-min Rain = 0
KST3 251941Z 20014G19KT 36/06 A2989 RMK A01 T03600063  RH  016%=      5-min Rain = 0
KST3 251942Z 19016KT 36/06 A2989 RMK A01 T03620062  RH  016%=      5-min Rain = 0
KST3 251943Z 20017KT 36/06 A2989 RMK A01 T03610062  RH  016%=      5-min Rain = 0
KST3 251944Z 21012KT 36/06 A2989 RMK A01 T03610061  RH  016%=      5-min Rain = 0
KST3 251945Z 20017KT 36/06 A2989 RMK A01 T03620062  RH  016%=      5-min Rain = 0
KST3 251946Z 21018G23KT 36/06 A2989 RMK A01 T03630063  RH  016%=      5-min Rain = 0
KST3 251947Z 20018KT 36/06 A2989 RMK A01 T03640064  RH  016%=      5-min Rain = 0
KST3 251948Z 20016KT 36/06 A2989 RMK A01 T03620061  RH  016%=      5-min Rain = 0
KST3 251949Z 21015KT 36/06 A2989 RMK A01 T03610063  RH  016%=      5-min Rain = 0
KST3 251950Z 22015KT 36/06 A2989 RMK A01 T03620062  RH  016%=      5-min Rain = 0
KST3 251951Z 21018KT 36/07 A2989 RMK A01 T03640065  RH  016%=      5-min Rain = 0
KST3 251952Z 22017KT 36/06 A2989 RMK A01 T03630060  RH  015%=      5-min Rain = 0
KST3 251953Z 22015KT 36/06 A2989 RMK A01 T03600061  RH  016%=      5-min Rain = 0
KST3 251954Z 22013KT 36/06 A2989 RMK A01 T03590063  RH  016%=      5-min Rain = 0
KST3 251955Z 23016KT 36/07 A2989 RMK A01 T03590066  RH  016%=      5-min Rain = 0
KST3 251956Z 21020KT 36/07 A2989 RMK A01 T03610066  RH  016%=      5-min Rain = 0
KST3 251957Z 21016KT 36/07 A2989 RMK A01 T03610067  RH  016%=      5-min Rain = 0
KST3 251958Z 20013KT 36/07 A2989 RMK A01 T03610065  RH  016%=      5-min Rain = 0
KST3 251959Z 23014KT 36/07 A2989 RMK A01 T03600066  RH  016%=      5-min Rain = 0
KST3 252000Z 22016KT 36/07 A2989 RMK A01 T03590066  RH  016%=      5-min Rain = 0
KST3 252001Z 21018KT 36/07 A2989 RMK A01 T03610065  RH  016%=      5-min Rain = 0
KST3 252002Z 21016KT 36/07 A2989 RMK A01 T03620066  RH  016%=      5-min Rain = 0
KST3 252003Z 19017G22KT 36/06 A2988 RMK A01 T03620064  RH  016%=      5-min Rain = 0
KST3 252004Z 20015G24KT 36/07 A2988 RMK A01 T03620065  RH  016%=      5-min Rain = 0
KST3 252005Z 21021KT 36/06 A2988 RMK A01 T03640062  RH  016%=      5-min Rain = 0
KST3 252006Z 21019KT 36/06 A2988 RMK A01 T03620062  RH  016%=      5-min Rain = 0
KST3 252007Z 21015KT 36/06 A2988 RMK A01 T03630062  RH  016%=      5-min Rain = 0
KST3 252008Z 20014KT 36/06 A2988 RMK A01 T03620063  RH  016%=      5-min Rain = 0
KST3 252009Z 21016KT 36/06 A2988 RMK A01 T03630064  RH  016%=      5-min Rain = 0
KST3 252010Z 23018KT 37/06 A2988 RMK A01 T03650064  RH  016%=      5-min Rain = 0
KST3 252011Z 22016KT 36/06 A2988 RMK A01 T03640062  RH  016%=      5-min Rain = 0
KST3 252012Z 21017KT 36/06 A2988 RMK A01 T03620063  RH  016%=      5-min Rain = 0
KST3 252013Z 23018KT 36/06 A2988 RMK A01 T03630062  RH  016%=      5-min Rain = 0
KST3 252014Z 24018KT 36/06 A2988 RMK A01 T03640057  RH  015%=      5-min Rain = 0
KST3 252015Z 22016G23KT 36/06 A2988 RMK A01 T03630061  RH  016%=      5-min Rain = 0
KST3 252016Z 22018KT 37/07 A2988 RMK A01 T03670066  RH  016%=      5-min Rain = 0
KST3 252017Z 21018KT 37/07 A2988 RMK A01 T03680066  RH  016%=      5-min Rain = 0
KST3 252018Z 22021KT 37/07 A2988 RMK A01 T03680066  RH  016%=      5-min Rain = 0
KST3 252019Z 22019KT 37/06 A2988 RMK A01 T03660063  RH  015%=      5-min Rain = 0
KST3 252020Z 22016G22KT 36/06 A2988 RMK A01 T03640064  RH  016%=      5-min Rain = 0
KST3 252021Z 21020KT 37/06 A2988 RMK A01 T03650061  RH  015%=      5-min Rain = 0
KST3 252022Z 21018KT 37/06 A2988 RMK A01 T03650060  RH  015%=      5-min Rain = 0
KST3 252023Z 20016G21KT 36/06 A2988 RMK A01 T03630060  RH  015%=      5-min Rain = 0
KST3 252024Z 20017KT 36/06 A2988 RMK A01 T03630061  RH  016%=      5-min Rain = 0
KST3 252025Z 21014KT 37/07 A2988 RMK A01 T03650065  RH  016%=      5-min Rain = 0
KST3 252026Z 20018KT 37/06 A2988 RMK A01 T03680063  RH  015%=      5-min Rain = 0
KST3 252027Z 21015KT 37/06 A2988 RMK A01 T03670063  RH  015%=      5-min Rain = 0
KST3 252028Z 20017G23KT 37/06 A2987 RMK A01 T03660062  RH  015%=      5-min Rain = 0
KST3 252029Z 21016KT 36/06 A2987 RMK A01 T03640060  RH  015%=      5-min Rain = 0
KST3 252030Z 22018G25KT 36/06 A2987 RMK A01 T03640062  RH  016%=      5-min Rain = 0
KST3 252031Z 22018KT 36/06 A2987 RMK A01 T03630063  RH  016%=      5-min Rain = 0
KST3 252032Z 22020G26KT 36/06 A2987 RMK A01 T03640063  RH  016%=      5-min Rain = 0
KST3 252033Z 22015G20KT 37/06 A2987 RMK A01 T03650064  RH  016%=      5-min Rain = 0
KST3 252034Z 23022G27KT 36/07 A2987 RMK A01 T03640065  RH  016%=      5-min Rain = 0
KST3 252035Z 23015KT 36/06 A2987 RMK A01 T03640064  RH  016%=      5-min Rain = 0
KST3 252036Z 23013KT 37/07 A2987 RMK A01 T03650066  RH  016%=      5-min Rain = 0
KST3 252037Z 22014KT 37/07 A2987 RMK A01 T03680067  RH  016%=      5-min Rain = 0
KST3 252038Z 22014KT 37/06 A2987 RMK A01 T03690064  RH  015%=      5-min Rain = 0
KST3 252039Z 22012KT 37/07 A2987 RMK A01 T03680065  RH  016%=      5-min Rain = 0
KST3 252040Z 21017KT 37/07 A2987 RMK A01 T03690067  RH  016%=      5-min Rain = 0
KST3 252041Z 21014KT 37/07 A2987 RMK A01 T03700065  RH  015%=      5-min Rain = 0
KST3 252042Z 21013KT 37/07 A2987 RMK A01 T03700065  RH  015%=      5-min Rain = 0
KST3 252043Z 21014KT 37/07 A2987 RMK A01 T03700066  RH  016%=      5-min Rain = 0
KST3 252044Z 22015G20KT 37/07 A2987 RMK A01 T03720067  RH  015%=      5-min Rain = 0
KST3 252045Z 22019KT 37/07 A2987 RMK A01 T03730065  RH  015%=      5-min Rain = 0
KST3 252046Z 22018KT 37/06 A2987 RMK A01 T03720063  RH  015%=      5-min Rain = 0
KST3 252047Z 22016KT 37/06 A2987 RMK A01 T03680059  RH  015%=      5-min Rain = 0
KST3 252048Z 21015G20KT 37/06 A2987 RMK A01 T03650060  RH  015%=      5-min Rain = 0
KST3 252049Z 22017KT 37/06 A2987 RMK A01 T03660062  RH  015%=      5-min Rain = 0
KST3 252050Z 20013KT 37/06 A2987 RMK A01 T03670063  RH  015%=      5-min Rain = 0
KST3 252051Z 20015KT 37/06 A2987 RMK A01 T03680061  RH  015%=      5-min Rain = 0
KST3 252052Z 21021G27KT 37/06 A2987 RMK A01 T03670063  RH  015%=      5-min Rain = 0
KST3 252053Z 21019KT 37/06 A2987 RMK A01 T03680059  RH  015%=      5-min Rain = 0
KST3 252054Z 22015KT 37/06 A2987 RMK A01 T03670060  RH  015%=      5-min Rain = 0
KST3 252055Z 21015KT 37/06 A2987 RMK A01 T03670061  RH  015%=      5-min Rain = 0
KST3 252056Z 21013KT 37/06 A2987 RMK A01 T03680061  RH  015%=      5-min Rain = 0
KST3 252057Z 21014KT 37/06 A2986 RMK A01 T03700061  RH  015%=      5-min Rain = 0
KST3 252058Z 22017KT 37/06 A2986 RMK A01 T03710057  RH  015%=      5-min Rain = 0
KST3 252059Z 20017G22KT 37/06 A2986 RMK A01 T03710057  RH  015%=      5-min Rain = 0
KST3 252100Z 20015KT 37/06 A2986 RMK A01 T03690057  RH  015%=      5-min Rain = 0
KST3 252101Z 20019KT 37/06 A2986 RMK A01 T03670058  RH  015%=      5-min Rain = 0
KST3 252102Z 22019KT 37/06 A2986 RMK A01 T03660060  RH  015%=      5-min Rain = 0
KST3 252103Z 23016G21KT 37/06 A2986 RMK A01 T03660059  RH  015%=      5-min Rain = 0
KST3 252104Z 23018KT 37/06 A2986 RMK A01 T03660057  RH  015%=      5-min Rain = 0
KST3 252105Z 22013KT 37/06 A2986 RMK A01 T03660057  RH  015%=      5-min Rain = 0
KST3 252106Z 22015KT 37/06 A2986 RMK A01 T03690060  RH  015%=      5-min Rain = 0
KST3 252107Z 22017KT 37/06 A2986 RMK A01 T03700061  RH  015%=      5-min Rain = 0
KST3 252108Z 22016KT 37/06 A2986 RMK A01 T03710057  RH  014%=      5-min Rain = 0
KST3 252109Z 21013KT 37/06 A2986 RMK A01 T03700056  RH  015%=      5-min Rain = 0
KST3 252110Z 21015KT 37/06 A2986 RMK A01 T03690058  RH  015%=      5-min Rain = 0
KST3 252111Z 21014KT 37/06 A2986 RMK A01 T03690058  RH  015%=      5-min Rain = 0
KST3 252112Z 21013G18KT 37/06 A2986 RMK A01 T03680059  RH  015%=      5-min Rain = 0
KST3 252113Z 22015KT 37/06 A2986 RMK A01 T03700060  RH  015%=      5-min Rain = 0
KST3 252114Z 21015KT 37/06 A2986 RMK A01 T03700060  RH  015%=      5-min Rain = 0
KST3 252115Z 19015KT 37/06 A2986 RMK A01 T03710062  RH  015%=      5-min Rain = 0
KST3 252116Z 20018KT 37/06 A2986 RMK A01 T03710059  RH  015%=      5-min Rain = 0
KST3 252117Z 20014G19KT 37/06 A2986 RMK A01 T03670057  RH  015%=      5-min Rain = 0
KST3 252118Z 20019KT 37/06 A2986 RMK A01 T03670058  RH  015%=      5-min Rain = 0
KST3 252119Z 20019G24KT 37/06 A2986 RMK A01 T03680055  RH  015%=      5-min Rain = 0
KST3 252120Z 20017KT 37/05 A2986 RMK A01 T03680054  RH  014%=      5-min Rain = 0
KST3 252121Z 20014G19KT 37/06 A2986 RMK A01 T03670055  RH  015%=      5-min Rain = 0
KST3 252122Z 21018KT 37/06 A2986 RMK A01 T03680056  RH  015%=      5-min Rain = 0
KST3 252123Z 21016KT 37/05 A2986 RMK A01 T03680051  RH  014%=      5-min Rain = 0
KST3 252124Z 21014KT 37/05 A2986 RMK A01 T03680053  RH  014%=      5-min Rain = 0
KST3 252125Z 21009KT 37/05 A2986 RMK A01 T03680051  RH  014%=      5-min Rain = 0
KST3 252126Z 22018KT 37/06 A2985 RMK A01 T03680055  RH  015%=      5-min Rain = 0
KST3 252127Z 22018G23KT 37/06 A2985 RMK A01 T03680056  RH  015%=      5-min Rain = 0
KST3 252128Z 23017KT 37/06 A2985 RMK A01 T03680055  RH  015%=      5-min Rain = 0
KST3 252129Z 22015KT 37/06 A2985 RMK A01 T03700055  RH  014%=      5-min Rain = 0
KST3 252130Z 21017KT 37/06 A2986 RMK A01 T03710057  RH  015%=      5-min Rain = 0
KST3 252131Z 21014KT 37/05 A2985 RMK A01 T03700054  RH  014%=      5-min Rain = 0
KST3 252132Z 21015KT 37/06 A2986 RMK A01 T03690058  RH  015%=      5-min Rain = 0
KST3 252133Z 22017KT 37/06 A2985 RMK A01 T03700058  RH  015%=      5-min Rain = 0
KST3 252134Z 23017KT 37/06 A2985 RMK A01 T03690057  RH  015%=      5-min Rain = 0
KST3 252135Z 22015G20KT 37/06 A2986 RMK A01 T03690059  RH  015%=      5-min Rain = 0
KST3 252136Z 23016KT 37/06 A2985 RMK A01 T03700058  RH  015%=      5-min Rain = 0
KST3 252137Z 22018G23KT 37/06 A2985 RMK A01 T03700057  RH  015%=      5-min Rain = 0
KST3 252138Z 21015KT 37/06 A2985 RMK A01 T03700055  RH  014%=      5-min Rain = 0
KST3 252139Z 21013G19KT 37/05 A2985 RMK A01 T03690053  RH  014%=      5-min Rain = 0
KST3 252140Z 22015KT 37/06 A2985 RMK A01 T03680055  RH  014%=      5-min Rain = 0
KST3 252141Z 21017KT 37/06 A2985 RMK A01 T03690056  RH  015%=      5-min Rain = 0
KST3 252142Z 20020KT 37/05 A2985 RMK A01 T03700054  RH  014%=      5-min Rain = 0
KST3 252143Z 20019KT 37/05 A2985 RMK A01 T03690054  RH  014%=      5-min Rain = 0
KST3 252144Z 20019KT 37/05 A2985 RMK A01 T03680053  RH  014%=      5-min Rain = 0
KST3 252145Z 20018KT 37/05 A2985 RMK A01 T03670053  RH  014%=      5-min Rain = 0
KST3 252146Z 20014KT 37/05 A2985 RMK A01 T03660053  RH  014%=      5-min Rain = 0
KST3 252147Z 19013KT 37/06 A2985 RMK A01 T03670055  RH  015%=      5-min Rain = 0
KST3 252148Z 21011G16KT 37/06 A2985 RMK A01 T03670055  RH  015%=      5-min Rain = 0
KST3 252149Z 21010KT 37/06 A2985 RMK A01 T03690060  RH  015%=      5-min Rain = 0
KST3 252150Z 20014KT 37/06 A2985 RMK A01 T03720060  RH  015%=      5-min Rain = 0
KST3 252151Z 19011KT 37/06 A2985 RMK A01 T03710056  RH  014%=      5-min Rain = 0
KST3 252152Z 20012KT 37/06 A2985 RMK A01 T03710061  RH  015%=      5-min Rain = 0
KST3 252153Z 19011KT 37/06 A2985 RMK A01 T03720061  RH  015%=      5-min Rain = 0
KST3 252154Z 20013G18KT 37/06 A2985 RMK A01 T03730060  RH  015%=      5-min Rain = 0
KST3 252155Z 22016KT 37/06 A2985 RMK A01 T03730056  RH  014%=      5-min Rain = 0
KST3 252156Z 22014KT 37/06 A2985 RMK A01 T03720055  RH  014%=      5-min Rain = 0
KST3 252157Z 22014KT 37/05 A2985 RMK A01 T03710051  RH  014%=      5-min Rain = 0
KST3 252158Z 23013KT 37/05 A2985 RMK A01 T03680051  RH  014%=      5-min Rain = 0
KST3 252159Z 22017KT 37/05 A2985 RMK A01 T03670052  RH  014%=      5-min Rain = 0
KST3 252200Z 22017KT 37/05 A2985 RMK A01 T03660053  RH  014%=      5-min Rain = 0
KST3 252201Z 22018KT 37/05 A2985 RMK A01 T03670053  RH  014%=      5-min Rain = 0
KST3 252202Z 21019KT 37/05 A2985 RMK A01 T03670051  RH  014%=      5-min Rain = 0
KST3 252203Z 21015KT 37/05 A2985 RMK A01 T03680049  RH  014%=      5-min Rain = 0
KST3 252204Z 21018KT 37/05 A2985 RMK A01 T03690049  RH  014%=      5-min Rain = 0
KST3 252205Z 22014KT 37/05 A2985 RMK A01 T03680046  RH  014%=      5-min Rain = 0
KST3 252206Z 21017KT 37/05 A2985 RMK A01 T03680049  RH  014%=      5-min Rain = 0
KST3 252207Z 21014KT 37/05 A2985 RMK A01 T03680049  RH  014%=      5-min Rain = 0
KST3 252208Z 21011KT 37/05 A2985 RMK A01 T03670050  RH  014%=      5-min Rain = 0
KST3 252209Z 21013G18KT 37/05 A2985 RMK A01 T03680053  RH  014%=      5-min Rain = 0
KST3 252210Z 20013KT 37/05 A2985 RMK A01 T03690050  RH  014%=      5-min Rain = 0
KST3 252211Z 20013KT 37/05 A2985 RMK A01 T03690052  RH  014%=      5-min Rain = 0
KST3 252212Z 21016KT 37/05 A2985 RMK A01 T03690052  RH  014%=      5-min Rain = 0
KST3 252213Z 21015KT 37/05 A2985 RMK A01 T03680051  RH  014%=      5-min Rain = 0
KST3 252214Z 22017KT 37/05 A2985 RMK A01 T03680051  RH  014%=      5-min Rain = 0
KST3 252215Z 22015G20KT 37/05 A2985 RMK A01 T03670048  RH  014%=      5-min Rain = 0
KST3 252216Z 21012KT 37/05 A2985 RMK A01 T03660051  RH  014%=      5-min Rain = 0
KST3 252217Z 20012KT 37/05 A2985 RMK A01 T03680050  RH  014%=      5-min Rain = 0
KST3 252218Z 21011KT 37/05 A2985 RMK A01 T03680049  RH  014%=      5-min Rain = 0
KST3 252219Z 20012KT 37/05 A2985 RMK A01 T03670051  RH  014%=      5-min Rain = 0
KST3 252220Z 19014G19KT 37/05 A2985 RMK A01 T03690051  RH  014%=      5-min Rain = 0
KST3 252221Z 20017KT 37/05 A2985 RMK A01 T03680049  RH  014%=      5-min Rain = 0
KST3 252222Z 21014KT 37/05 A2985 RMK A01 T03670049  RH  014%=      5-min Rain = 0
KST3 252223Z 21016G22KT 37/05 A2985 RMK A01 T03670050  RH  014%=      5-min Rain = 0
KST3 252224Z 20015G20KT 37/05 A2985 RMK A01 T03680051  RH  014%=      5-min Rain = 0
KST3 252225Z 20018KT 37/05 A2985 RMK A01 T03680048  RH  014%=      5-min Rain = 0
KST3 252226Z 21016KT 37/05 A2985 RMK A01 T03660048  RH  014%=      5-min Rain = 0
KST3 252227Z 20016KT 37/05 A2985 RMK A01 T03660048  RH  014%=      5-min Rain = 0
KST3 252228Z 20017KT 37/05 A2985 RMK A01 T03650045  RH  014%=      5-min Rain = 0
KST3 252229Z 20016KT 36/05 A2985 RMK A01 T03640045  RH  014%=      5-min Rain = 0
KST3 252230Z 21015KT 36/05 A2985 RMK A01 T03640046  RH  014%=      5-min Rain = 0
KST3 252231Z 21016KT 37/05 A2985 RMK A01 T03660046  RH  014%=      5-min Rain = 0
KST3 252232Z 21015KT 37/04 A2985 RMK A01 T03650042  RH  014%=      5-min Rain = 0
KST3 252233Z 21011KT 37/04 A2985 RMK A01 T03650042  RH  013%=      5-min Rain = 0
KST3 252234Z 20012KT 37/05 A2985 RMK A01 T03650046  RH  014%=      5-min Rain = 0
KST3 252235Z 20013KT 37/05 A2985 RMK A01 T03660047  RH  014%=      5-min Rain = 0
KST3 252236Z 21012KT 37/05 A2985 RMK A01 T03650047  RH  014%=      5-min Rain = 0
KST3 252237Z 22014KT 37/05 A2985 RMK A01 T03660048  RH  014%=      5-min Rain = 0
KST3 252238Z 21013KT 37/05 A2985 RMK A01 T03660046  RH  014%=      5-min Rain = 0
KST3 252239Z 21012G17KT 37/05 A2985 RMK A01 T03660049  RH  014%=      5-min Rain = 0
KST3 252240Z 22014KT 37/05 A2985 RMK A01 T03670047  RH  014%=      5-min Rain = 0
KST3 252241Z 22012KT 37/04 A2985 RMK A01 T03660044  RH  014%=      5-min Rain = 0
KST3 252242Z 21013KT 37/05 A2985 RMK A01 T03660047  RH  014%=      5-min Rain = 0
KST3 252243Z 21013KT 37/05 A2985 RMK A01 T03650047  RH  014%=      5-min Rain = 0
KST3 252244Z 20014KT 37/05 A2984 RMK A01 T03650045  RH  014%=      5-min Rain = 0
KST3 252245Z 21012KT 37/05 A2984 RMK A01 T03650046  RH  014%=      5-min Rain = 0
KST3 252246Z 22014KT 37/05 A2985 RMK A01 T03650048  RH  014%=      5-min Rain = 0
KST3 252247Z 22014KT 37/05 A2984 RMK A01 T03650048  RH  014%=      5-min Rain = 0
KST3 252248Z 22013KT 37/05 A2984 RMK A01 T03650048  RH  014%=      5-min Rain = 0
KST3 252249Z 22011KT 36/05 A2985 RMK A01 T03640051  RH  014%=      5-min Rain = 0
KST3 252250Z 21012KT 37/05 A2984 RMK A01 T03650050  RH  014%=      5-min Rain = 0
KST3 252251Z 22015KT 37/05 A2984 RMK A01 T03650050  RH  014%=      5-min Rain = 0
KST3 252252Z 22012KT 37/05 A2984 RMK A01 T03650049  RH  014%=      5-min Rain = 0
KST3 252253Z 22013KT 37/05 A2984 RMK A01 T03660050  RH  014%=      5-min Rain = 0
KST3 252254Z 23015KT 37/05 A2984 RMK A01 T03650047  RH  014%=      5-min Rain = 0
KST3 252255Z 23016KT 36/05 A2985 RMK A01 T03640046  RH  014%=      5-min Rain = 0
KST3 252256Z 23016KT 36/05 A2984 RMK A01 T03630045  RH  014%=      5-min Rain = 0
KST3 252257Z 23015KT 36/05 A2985 RMK A01 T03630046  RH  014%=      5-min Rain = 0
KST3 252258Z 24015KT 36/05 A2984 RMK A01 T03630046  RH  014%=      5-min Rain = 0
KST3 252259Z 23013KT 36/05 A2984 RMK A01 T03620045  RH  014%=      5-min Rain = 0
KST3 252300Z 22012KT 36/05 A2984 RMK A01 T03620048  RH  014%=      5-min Rain = 0
KST3 252301Z 21012KT 36/05 A2984 RMK A01 T03620048  RH  014%=      5-min Rain = 0
KST3 252302Z 22013KT 36/05 A2984 RMK A01 T03620047  RH  014%=      5-min Rain = 0
KST3 252303Z 21016KT 36/04 A2984 RMK A01 T03620044  RH  014%=      5-min Rain = 0
KST3 252304Z 20017KT 36/04 A2984 RMK A01 T03620042  RH  014%=      5-min Rain = 0
KST3 252305Z 21016KT 36/04 A2984 RMK A01 T03620041  RH  014%=      5-min Rain = 0
KST3 252306Z 22012KT 36/04 A2984 RMK A01 T03620043  RH  014%=      5-min Rain = 0
KST3 252307Z 21013KT 36/04 A2984 RMK A01 T03620044  RH  014%=      5-min Rain = 0
KST3 252308Z 21010KT 36/04 A2984 RMK A01 T03620043  RH  014%=      5-min Rain = 0
KST3 252309Z 20011KT 36/05 A2984 RMK A01 T03620045  RH  014%=      5-min Rain = 0
KST3 252310Z 19012KT 36/04 A2984 RMK A01 T03620043  RH  014%=      5-min Rain = 0
KST3 252311Z 19015G21KT 36/04 A2984 RMK A01 T03610042  RH  014%=      5-min Rain = 0
KST3 252312Z 20015KT 36/04 A2984 RMK A01 T03610042  RH  014%=      5-min Rain = 0
KST3 252313Z 19014KT 36/04 A2984 RMK A01 T03600043  RH  014%=      5-min Rain = 0
KST3 252314Z 19016KT 36/04 A2984 RMK A01 T03600042  RH  014%=      5-min Rain = 0
KST3 252315Z 20016KT 36/04 A2985 RMK A01 T03600044  RH  014%=      5-min Rain = 0
KST3 252316Z 21012KT 36/04 A2984 RMK A01 T03590043  RH  014%=      5-min Rain = 0
KST3 252317Z 21012KT 36/05 A2985 RMK A01 T03590045  RH  014%=      5-min Rain = 0
KST3 252318Z 21012KT 36/04 A2985 RMK A01 T03590044  RH  014%=      5-min Rain = 0
KST3 252319Z 21013KT 36/04 A2984 RMK A01 T03590044  RH  014%=      5-min Rain = 0
KST3 252320Z 22012KT 36/04 A2985 RMK A01 T03580042  RH  014%=      5-min Rain = 0
KST3 252321Z 22012KT 36/04 A2985 RMK A01 T03580042  RH  014%=      5-min Rain = 0
KST3 252322Z 21011KT 36/04 A2985 RMK A01 T03580044  RH  014%=      5-min Rain = 0
KST3 252323Z 21010KT 36/05 A2985 RMK A01 T03580046  RH  014%=      5-min Rain = 0
KST3 252324Z 21012KT 36/04 A2985 RMK A01 T03580043  RH  014%=      5-min Rain = 0
KST3 252325Z 20008KT 36/04 A2985 RMK A01 T03580042  RH  014%=      5-min Rain = 0
KST3 252326Z 20009KT 36/05 A2985 RMK A01 T03570046  RH  014%=      5-min Rain = 0
KST3 252327Z 20015KT 36/04 A2984 RMK A01 T03570043  RH  014%=      5-min Rain = 0
KST3 252328Z 20013KT 36/04 A2985 RMK A01 T03570040  RH  014%=      5-min Rain = 0
KST3 252329Z 20012KT 36/04 A2985 RMK A01 T03570042  RH  014%=      5-min Rain = 0
KST3 252330Z 20013G18KT 36/04 A2985 RMK A01 T03560041  RH  014%=      5-min Rain = 0
KST3 252331Z 20016KT 36/04 A2984 RMK A01 T03560039  RH  014%=      5-min Rain = 0
KST3 252332Z 21013KT 36/04 A2985 RMK A01 T03560039  RH  014%=      5-min Rain = 0
KST3 252333Z 20014KT 36/04 A2985 RMK A01 T03560039  RH  014%=      5-min Rain = 0
KST3 252334Z 21012KT 36/04 A2984 RMK A01 T03560039  RH  014%=      5-min Rain = 0
KST3 252335Z 20011KT 36/04 A2984 RMK A01 T03550040  RH  014%=      5-min Rain = 0
KST3 252336Z 20011KT 35/04 A2984 RMK A01 T03540041  RH  014%=      5-min Rain = 0
KST3 252337Z 20011KT 35/04 A2984 RMK A01 T03540040  RH  014%=      5-min Rain = 0
KST3 252338Z 19012KT 35/04 A2984 RMK A01 T03540039  RH  014%=      5-min Rain = 0
KST3 252339Z 19013KT 35/04 A2984 RMK A01 T03540038  RH  014%=      5-min Rain = 0
KST3 252340Z 20014KT 35/04 A2984 RMK A01 T03540038  RH  014%=      5-min Rain = 0
KST3 252341Z 20011KT 35/04 A2984 RMK A01 T03540038  RH  014%=      5-min Rain = 0
KST3 252342Z 19011KT 35/04 A2984 RMK A01 T03530039  RH  014%=      5-min Rain = 0
KST3 252343Z 20012KT 35/04 A2984 RMK A01 T03530038  RH  014%=      5-min Rain = 0
KST3 252344Z 20011KT 35/04 A2984 RMK A01 T03520040  RH  014%=      5-min Rain = 0
KST3 252345Z 20012KT 35/04 A2984 RMK A01 T03510041  RH  014%=      5-min Rain = 0
KST3 252346Z 19010KT 35/04 A2984 RMK A01 T03510041  RH  014%=      5-min Rain = 0
KST3 252347Z 19012KT 35/04 A2984 RMK A01 T03500039  RH  014%=      5-min Rain = 0
KST3 252348Z 19012KT 35/04 A2984 RMK A01 T03500038  RH  014%=      5-min Rain = 0
KST3 252349Z 19014KT 35/04 A2984 RMK A01 T03500037  RH  014%=      5-min Rain = 0
KST3 252350Z 18013KT 35/04 A2984 RMK A01 T03500037  RH  014%=      5-min Rain = 0
KST3 252351Z 19012KT 35/04 A2984 RMK A01 T03490036  RH  014%=      5-min Rain = 0
KST3 252352Z 19011KT 35/04 A2984 RMK A01 T03490037  RH  014%=      5-min Rain = 0
KST3 252353Z 19013KT 35/04 A2984 RMK A01 T03480037  RH  014%=      5-min Rain = 0
KST3 252354Z 19013KT 35/04 A2984 RMK A01 T03480037  RH  014%=      5-min Rain = 0
KST3 252355Z 19012KT 35/04 A2984 RMK A01 T03480036  RH  014%=      5-min Rain = 0
KST3 252356Z 19011G16KT 35/04 A2984 RMK A01 T03480037  RH  014%=      5-min Rain = 0
KST3 252357Z 19011KT 35/04 A2984 RMK A01 T03480036  RH  014%=      5-min Rain = 0
KST3 252358Z 19012KT 35/04 A2984 RMK A01 T03480036  RH  014%=      5-min Rain = 0
KST3 252359Z 19010KT 35/04 A2984 RMK A01 T03470037  RH  014%=      5-min Rain = 0
KST3 260000Z 19011KT 35/04 A2984 RMK A01 T03460037  RH  015%=      5-min Rain = 0
KST3 260001Z 19010KT 35/04 A2984 RMK A01 T03450038  RH  015%=      5-min Rain = 0
KST3 260002Z 19010KT 34/04 A2984 RMK A01 T03440038  RH  015%=      5-min Rain = 0
KST3 260003Z 19010KT 34/04 A2984 RMK A01 T03430038  RH  015%=      5-min Rain = 0
KST3 260004Z 19010KT 34/04 A2984 RMK A01 T03420038  RH  015%=      5-min Rain = 0
KST3 260005Z 20010KT 34/04 A2984 RMK A01 T03420039  RH  015%=      5-min Rain = 0
KST3 260006Z 19010KT 34/04 A2984 RMK A01 T03410040  RH  015%=      5-min Rain = 0
KST3 260007Z 19010KT 34/04 A2984 RMK A01 T03400041  RH  015%=      5-min Rain = 0
KST3 260008Z 19010KT 34/04 A2984 RMK A01 T03390042  RH  016%=      5-min Rain = 0
KST3 260009Z 18009KT 34/04 A2984 RMK A01 T03380042  RH  016%=      5-min Rain = 0
KST3 260010Z 19009KT 34/04 A2985 RMK A01 T03380043  RH  016%=      5-min Rain = 0
KST3 260011Z 18012KT 34/04 A2985 RMK A01 T03370044  RH  016%=      5-min Rain = 0
KST3 260012Z 18010KT 34/05 A2985 RMK A01 T03370046  RH  016%=      5-min Rain = 0
KST3 260013Z 18010KT 34/05 A2985 RMK A01 T03370047  RH  016%=      5-min Rain = 0
KST3 260014Z 17014G19KT 34/05 A2985 RMK A01 T03370048  RH  016%=      5-min Rain = 0
KST3 260015Z 18016KT 34/05 A2985 RMK A01 T03360048  RH  017%=      5-min Rain = 0
KST3 260016Z 18012KT 34/05 A2985 RMK A01 T03360049  RH  017%=      5-min Rain = 0
KST3 260017Z 18017KT 34/05 A2985 RMK A01 T03350050  RH  017%=      5-min Rain = 0
KST3 260018Z 18014KT 34/05 A2985 RMK A01 T03360049  RH  017%=      5-min Rain = 0
KST3 260019Z 18015KT 34/05 A2985 RMK A01 T03350050  RH  017%=      5-min Rain = 0
KST3 260020Z 18013KT 33/05 A2985 RMK A01 T03340050  RH  017%=      5-min Rain = 0
KST3 260021Z 18013G18KT 33/05 A2985 RMK A01 T03340050  RH  017%=      5-min Rain = 0
KST3 260022Z 18014KT 33/05 A2985 RMK A01 T03330050  RH  017%=      5-min Rain = 0
KST3 260023Z 18012KT 33/05 A2985 RMK A01 T03330050  RH  017%=      5-min Rain = 0
KST3 260024Z 18012KT 33/05 A2985 RMK A01 T03320050  RH  017%=      5-min Rain = 0
KST3 260025Z 18011KT 33/05 A2985 RMK A01 T03310050  RH  017%=      5-min Rain = 0
KST3 260026Z 18011KT 33/05 A2985 RMK A01 T03300050  RH  017%=      5-min Rain = 0
KST3 260027Z 18012KT 33/05 A2985 RMK A01 T03290051  RH  018%=      5-min Rain = 0
KST3 260028Z 18011KT 33/05 A2985 RMK A01 T03280050  RH  017%=      5-min Rain = 0
KST3 260029Z 18010KT 33/05 A2985 RMK A01 T03280051  RH  018%=      5-min Rain = 0
KST3 260030Z 18012KT 33/05 A2985 RMK A01 T03270051  RH  018%=      5-min Rain = 0
KST3 260031Z 17011KT 33/05 A2985 RMK A01 T03260051  RH  018%=      5-min Rain = 0
KST3 260032Z 18010KT 33/05 A2985 RMK A01 T03260051  RH  018%=      5-min Rain = 0
KST3 260033Z 18011KT 33/05 A2985 RMK A01 T03250051  RH  018%=      5-min Rain = 0
KST3 260034Z 18010KT 33/05 A2985 RMK A01 T03250051  RH  018%=      5-min Rain = 0
KST3 260035Z 18010KT 32/05 A2985 RMK A01 T03240051  RH  018%=      5-min Rain = 0
KST3 260036Z 18010KT 32/05 A2985 RMK A01 T03230051  RH  018%=      5-min Rain = 0
KST3 260037Z 18011KT 32/05 A2985 RMK A01 T03210051  RH  018%=      5-min Rain = 0
KST3 260038Z 18011KT 32/05 A2985 RMK A01 T03210051  RH  018%=      5-min Rain = 0
KST3 260039Z 18010KT 32/05 A2985 RMK A01 T03220052  RH  018%=      5-min Rain = 0
KST3 260040Z 17008KT 32/05 A2985 RMK A01 T03210051  RH  018%=      5-min Rain = 0
KST3 260041Z 18009KT 32/05 A2985 RMK A01 T03190051  RH  019%=      5-min Rain = 0
KST3 260042Z 18009KT 32/05 A2985 RMK A01 T03190051  RH  019%=      5-min Rain = 0
KST3 260043Z 17009KT 32/05 A2985 RMK A01 T03180052  RH  019%=      5-min Rain = 0
KST3 260044Z 17009KT 32/05 A2985 RMK A01 T03170052  RH  019%=      5-min Rain = 0
KST3 260045Z 18008KT 32/05 A2985 RMK A01 T03160052  RH  019%=      5-min Rain = 0
KST3 260046Z 18008KT 32/05 A2985 RMK A01 T03150052  RH  019%=      5-min Rain = 0
KST3 260047Z 18009KT 31/05 A2985 RMK A01 T03140052  RH  019%=      5-min Rain = 0
KST3 260048Z 17010KT 31/05 A2985 RMK A01 T03130052  RH  019%=      5-min Rain = 0
KST3 260049Z 17010KT 31/05 A2985 RMK A01 T03130052  RH  019%=      5-min Rain = 0
KST3 260050Z 17012KT 31/05 A2985 RMK A01 T03140053  RH  019%=      5-min Rain = 0
KST3 260051Z 17011KT 31/05 A2985 RMK A01 T03130052  RH  019%=      5-min Rain = 0
KST3 260052Z 18010KT 31/05 A2985 RMK A01 T03140052  RH  019%=      5-min Rain = 0
KST3 260053Z 18011KT 31/05 A2985 RMK A01 T03140053  RH  019%=      5-min Rain = 0
KST3 260054Z 17011KT 31/05 A2985 RMK A01 T03120052  RH  019%=      5-min Rain = 0
KST3 260055Z 17010KT 31/05 A2985 RMK A01 T03120052  RH  019%=      5-min Rain = 0
KST3 260056Z 18012KT 31/05 A2985 RMK A01 T03130053  RH  019%=      5-min Rain = 0
KST3 260057Z 17012KT 31/05 A2985 RMK A01 T03130052  RH  019%=      5-min Rain = 0
KST3 260058Z 17011KT 31/05 A2985 RMK A01 T03130053  RH  019%=      5-min Rain = 0
KST3 260059Z 17011KT 31/05 A2985 RMK A01 T03120052  RH  020%=      5-min Rain = 0
KST3 260100Z 17011KT 31/05 A2985 RMK A01 T03120052  RH  019%=      5-min Rain = 0
KST3 260101Z 17011KT 31/05 A2985 RMK A01 T03120052  RH  020%=      5-min Rain = 0
KST3 260102Z 17010KT 31/05 A2985 RMK A01 T03110052  RH  020%=      5-min Rain = 0
KST3 260103Z 18013KT 31/05 A2985 RMK A01 T03100052  RH  020%=      5-min Rain = 0
KST3 260104Z 18012KT 31/05 A2986 RMK A01 T03090052  RH  020%=      5-min Rain = 0
KST3 260105Z 17013G18KT 31/05 A2986 RMK A01 T03090052  RH  020%=      5-min Rain = 0
KST3 260106Z 18013KT 31/05 A2986 RMK A01 T03100053  RH  020%=      5-min Rain = 0
KST3 260107Z 17013KT 31/05 A2986 RMK A01 T03100053  RH  020%=      5-min Rain = 0
KST3 260108Z 18012KT 31/05 A2986 RMK A01 T03090052  RH  020%=      5-min Rain = 0
KST3 260109Z 17014KT 31/05 A2986 RMK A01 T03090052  RH  020%=      5-min Rain = 0
KST3 260110Z 17013KT 31/05 A2986 RMK A01 T03090052  RH  020%=      5-min Rain = 0
KST3 260111Z 17013KT 31/05 A2986 RMK A01 T03090052  RH  020%=      5-min Rain = 0
KST3 260112Z 17012KT 31/05 A2986 RMK A01 T03090052  RH  020%=      5-min Rain = 0
KST3 260113Z 17012KT 31/05 A2986 RMK A01 T03080052  RH  020%=      5-min Rain = 0
KST3 260114Z 17013KT 31/05 A2986 RMK A01 T03070052  RH  020%=      5-min Rain = 0
KST3 260115Z 18013G18KT 31/05 A2986 RMK A01 T03070052  RH  020%=      5-min Rain = 0
KST3 260116Z 17012KT 31/05 A2986 RMK A01 T03060051  RH  020%=      5-min Rain = 0
KST3 260117Z 18013KT 31/05 A2986 RMK A01 T03070052  RH  020%=      5-min Rain = 0
KST3 260118Z 18014KT 31/05 A2986 RMK A01 T03060051  RH  020%=      5-min Rain = 0
KST3 260119Z 18012KT 31/05 A2986 RMK A01 T03070051  RH  020%=      5-min Rain = 0
KST3 260120Z 17012KT 31/05 A2986 RMK A01 T03070052  RH  020%=      5-min Rain = 0
KST3 260121Z 17013KT 31/05 A2986 RMK A01 T03060052  RH  020%=      5-min Rain = 0
KST3 260122Z 17013KT 31/05 A2986 RMK A01 T03060052  RH  020%=      5-min Rain = 0
KST3 260123Z 18012KT 31/05 A2986 RMK A01 T03060051  RH  020%=      5-min Rain = 0
KST3 260124Z 17010KT 31/05 A2986 RMK A01 T03050051  RH  020%=      5-min Rain = 0
KST3 260125Z 18013KT 30/05 A2986 RMK A01 T03030051  RH  020%=      5-min Rain = 0
KST3 260126Z 17013KT 30/05 A2986 RMK A01 T03030050  RH  020%=      5-min Rain = 0
KST3 260127Z 18015G20KT 30/05 A2986 RMK A01 T03040050  RH  020%=      5-min Rain = 0
KST3 260128Z 18013KT 30/05 A2986 RMK A01 T03040050  RH  020%=      5-min Rain = 0
KST3 260129Z 18013KT 30/05 A2986 RMK A01 T03040050  RH  020%=      5-min Rain = 0
KST3 260130Z 18014KT 30/05 A2986 RMK A01 T03040050  RH  020%=      5-min Rain = 0
KST3 260131Z 18013KT 30/05 A2986 RMK A01 T03030049  RH  020%=      5-min Rain = 0
KST3 260132Z 18014KT 30/05 A2987 RMK A01 T03030049  RH  020%=      5-min Rain = 0
KST3 260133Z 17013KT 30/05 A2987 RMK A01 T03020049  RH  020%=      5-min Rain = 0
KST3 260134Z 18013KT 30/05 A2987 RMK A01 T03020049  RH  020%=      5-min Rain = 0
KST3 260135Z 18013KT 30/05 A2987 RMK A01 T03010049  RH  020%=      5-min Rain = 0
KST3 260136Z 18012KT 30/05 A2987 RMK A01 T03010049  RH  020%=      5-min Rain = 0
KST3 260137Z 18012KT 30/05 A2987 RMK A01 T03000048  RH  020%=      5-min Rain = 0
KST3 260138Z 18013KT 30/05 A2987 RMK A01 T02990048  RH  020%=      5-min Rain = 0
KST3 260139Z 18013KT 30/05 A2987 RMK A01 T02990048  RH  020%=      5-min Rain = 0
KST3 260140Z 18013KT 30/05 A2987 RMK A01 T03000048  RH  020%=      5-min Rain = 0
KST3 260141Z 18014KT 30/05 A2987 RMK A01 T02990047  RH  020%=      5-min Rain = 0
KST3 260142Z 18014G19KT 30/05 A2987 RMK A01 T02990046  RH  020%=      5-min Rain = 0
KST3 260143Z 18014G19KT 30/05 A2987 RMK A01 T02990046  RH  020%=      5-min Rain = 0
KST3 260144Z 18012KT 30/05 A2987 RMK A01 T02990045  RH  020%=      5-min Rain = 0
KST3 260145Z 18013KT 30/05 A2987 RMK A01 T02980045  RH  020%=      5-min Rain = 0
KST3 260146Z 18015KT 30/05 A2987 RMK A01 T02980045  RH  020%=      5-min Rain = 0
KST3 260147Z 18015KT 30/05 A2987 RMK A01 T02980045  RH  020%=      5-min Rain = 0
KST3 260148Z 18016KT 30/04 A2987 RMK A01 T02990044  RH  020%=      5-min Rain = 0
KST3 260149Z 18015KT 30/04 A2987 RMK A01 T02990044  RH  020%=      5-min Rain = 0
KST3 260150Z 18016KT 30/04 A2987 RMK A01 T03000043  RH  020%=      5-min Rain = 0
KST3 260151Z 18015KT 30/04 A2988 RMK A01 T03000043  RH  020%=      5-min Rain = 0
KST3 260152Z 18016KT 30/04 A2988 RMK A01 T02990043  RH  020%=      5-min Rain = 0
KST3 260153Z 18017KT 30/04 A2988 RMK A01 T02990043  RH  020%=      5-min Rain = 0
KST3 260154Z 18015KT 30/04 A2988 RMK A01 T02990043  RH  020%=      5-min Rain = 0
KST3 260155Z 18014KT 30/04 A2988 RMK A01 T02990043  RH  020%=      5-min Rain = 0
KST3 260156Z 18012G17KT 30/04 A2988 RMK A01 T02990043  RH  020%=      5-min Rain = 0
KST3 260157Z 19014KT 30/04 A2988 RMK A01 T02970043  RH  020%=      5-min Rain = 0
KST3 260158Z 18015KT 30/04 A2988 RMK A01 T02970043  RH  020%=      5-min Rain = 0
KST3 260159Z 19016KT 30/04 A2988 RMK A01 T02980043  RH  020%=      5-min Rain = 0
KST3 260200Z 18015KT 30/04 A2988 RMK A01 T02970042  RH  020%=      5-min Rain = 0
KST3 260201Z 19014G20KT 30/04 A2988 RMK A01 T02970042  RH  020%=      5-min Rain = 0
KST3 260202Z 18015KT 30/04 A2988 RMK A01 T02960042  RH  020%=      5-min Rain = 0
KST3 260203Z 19014KT 30/04 A2988 RMK A01 T02960042  RH  020%=      5-min Rain = 0
KST3 260204Z 18013KT 30/04 A2988 RMK A01 T02960042  RH  020%=      5-min Rain = 0
KST3 260205Z 18014G19KT 30/04 A2988 RMK A01 T02950042  RH  020%=      5-min Rain = 0
KST3 260206Z 18014KT 29/04 A2988 RMK A01 T02940041  RH  020%=      5-min Rain = 0
KST3 260207Z 18013G18KT 29/04 A2988 RMK A01 T02940042  RH  020%=      5-min Rain = 0
KST3 260208Z 18014KT 29/04 A2988 RMK A01 T02940042  RH  020%=      5-min Rain = 0
KST3 260209Z 18012G18KT 29/04 A2988 RMK A01 T02940042  RH  020%=      5-min Rain = 0
KST3 260210Z 18013KT 29/04 A2989 RMK A01 T02930042  RH  020%=      5-min Rain = 0
KST3 260211Z 18015KT 29/04 A2989 RMK A01 T02920042  RH  020%=      5-min Rain = 0
KST3 260212Z 18012KT 29/04 A2989 RMK A01 T02930041  RH  020%=      5-min Rain = 0
KST3 260213Z 18013KT 29/04 A2989 RMK A01 T02930042  RH  020%=      5-min Rain = 0
KST3 260214Z 18013G18KT 29/04 A2989 RMK A01 T02910042  RH  020%=      5-min Rain = 0
KST3 260215Z 18013KT 29/04 A2989 RMK A01 T02910042  RH  020%=      5-min Rain = 0
KST3 260216Z 18014KT 29/04 A2989 RMK A01 T02900042  RH  021%=      5-min Rain = 0
KST3 260217Z 18014KT 29/04 A2989 RMK A01 T02900041  RH  020%=      5-min Rain = 0
KST3 260218Z 18013KT 29/04 A2989 RMK A01 T02900041  RH  020%=      5-min Rain = 0
KST3 260219Z 18014KT 29/04 A2989 RMK A01 T02900042  RH  021%=      5-min Rain = 0
KST3 260220Z 18014KT 29/04 A2989 RMK A01 T02900041  RH  021%=      5-min Rain = 0
KST3 260221Z 18015KT 29/04 A2989 RMK A01 T02900041  RH  021%=      5-min Rain = 0
KST3 260222Z 18014G19KT 29/04 A2989 RMK A01 T02900041  RH  021%=      5-min Rain = 0
KST3 260223Z 18014KT 29/04 A2989 RMK A01 T02900041  RH  021%=      5-min Rain = 0
KST3 260224Z 18014KT 29/04 A2989 RMK A01 T02890041  RH  021%=      5-min Rain = 0
KST3 260225Z 18013KT 29/04 A2989 RMK A01 T02880042  RH  021%=      5-min Rain = 0
KST3 260226Z 18012KT 29/04 A2989 RMK A01 T02870041  RH  021%=      5-min Rain = 0
KST3 260227Z 18012KT 29/04 A2989 RMK A01 T02870041  RH  021%=      5-min Rain = 0
KST3 260228Z 18014KT 29/04 A2989 RMK A01 T02860041  RH  021%=      5-min Rain = 0
KST3 260229Z 18013G18KT 29/04 A2989 RMK A01 T02860041  RH  021%=      5-min Rain = 0
KST3 260230Z 18012KT 29/04 A2989 RMK A01 T02860041  RH  021%=      5-min Rain = 0
KST3 260231Z 18015KT 29/04 A2989 RMK A01 T02860041  RH  021%=      5-min Rain = 0
KST3 260232Z 18014KT 29/04 A2989 RMK A01 T02850040  RH  021%=      5-min Rain = 0
KST3 260233Z 18013G18KT 29/04 A2989 RMK A01 T02850040  RH  021%=      5-min Rain = 0
KST3 260234Z 18013KT 29/04 A2989 RMK A01 T02850040  RH  021%=      5-min Rain = 0
KST3 260235Z 18014KT 28/04 A2989 RMK A01 T02840040  RH  021%=      5-min Rain = 0
KST3 260236Z 18013G18KT 28/04 A2989 RMK A01 T02840040  RH  021%=      5-min Rain = 0
KST3 260237Z 18012KT 28/04 A299 RMK A01 T02830040  RH  021%=      5-min Rain = 0
KST3 260238Z 18013KT 28/04 A299 RMK A01 T02820040  RH  021%=      5-min Rain = 0
KST3 260239Z 18013KT 28/04 A299 RMK A01 T02820039  RH  021%=      5-min Rain = 0
KST3 260240Z 18013KT 28/04 A299 RMK A01 T02810039  RH  021%=      5-min Rain = 0
KST3 260241Z 18013KT 28/04 A299 RMK A01 T02810038  RH  021%=      5-min Rain = 0
KST3 260242Z 18014KT 28/04 A299 RMK A01 T02810038  RH  021%=      5-min Rain = 0
KST3 260243Z 18014KT 28/04 A299 RMK A01 T02820037  RH  021%=      5-min Rain = 0
KST3 260244Z 18013KT 28/04 A299 RMK A01 T02820037  RH  021%=      5-min Rain = 0
KST3 260245Z 18013KT 28/04 A299 RMK A01 T02810036  RH  021%=      5-min Rain = 0
KST3 260246Z 18013KT 28/04 A299 RMK A01 T02810036  RH  021%=      5-min Rain = 0
KST3 260247Z 18013G18KT 28/04 A299 RMK A01 T02810036  RH  021%=      5-min Rain = 0
KST3 260248Z 18014KT 28/04 A299 RMK A01 T02800035  RH  021%=      5-min Rain = 0
KST3 260249Z 19013KT 28/03 A299 RMK A01 T02800034  RH  021%=      5-min Rain = 0
KST3 260250Z 18012KT 28/04 A299 RMK A01 T02800035  RH  021%=      5-min Rain = 0
KST3 260251Z 18014KT 28/04 A299 RMK A01 T02790035  RH  021%=      5-min Rain = 0
KST3 260252Z 18014KT 28/03 A299 RMK A01 T02790033  RH  021%=      5-min Rain = 0
KST3 260253Z 18013KT 28/03 A299 RMK A01 T02790033  RH  021%=      5-min Rain = 0
KST3 260254Z 19015KT 28/03 A299 RMK A01 T02790033  RH  020%=      5-min Rain = 0
KST3 260255Z 18014KT 28/03 A299 RMK A01 T02800032  RH  020%=      5-min Rain = 0
KST3 260256Z 18015KT 28/03 A299 RMK A01 T02800031  RH  020%=      5-min Rain = 0
KST3 260257Z 19014G20KT 28/03 A299 RMK A01 T02800031  RH  020%=      5-min Rain = 0
KST3 260258Z 18016KT 28/03 A299 RMK A01 T02800030  RH  020%=      5-min Rain = 0
KST3 260259Z 19015KT 28/03 A299 RMK A01 T02800030  RH  020%=      5-min Rain = 0
KST3 260300Z 19014G19KT 28/03 A299 RMK A01 T02800029  RH  020%=      5-min Rain = 0
KST3 260301Z 19013KT 28/03 A299 RMK A01 T02800029  RH  020%=      5-min Rain = 0
KST3 260302Z 19013KT 28/03 A299 RMK A01 T02790028  RH  020%=      5-min Rain = 0
KST3 260303Z 18014KT 28/03 A299 RMK A01 T02790028  RH  020%=      5-min Rain = 0
KST3 260304Z 18013KT 28/03 A299 RMK A01 T02790028  RH  020%=      5-min Rain = 0
KST3 260305Z 19013KT 28/03 A299 RMK A01 T02780028  RH  020%=      5-min Rain = 0
KST3 260306Z 18012KT 28/03 A299 RMK A01 T02780028  RH  020%=      5-min Rain = 0
KST3 260307Z 19013KT 28/03 A299 RMK A01 T02780028  RH  020%=      5-min Rain = 0
KST3 260308Z 18014KT 28/03 A299 RMK A01 T02770027  RH  020%=      5-min Rain = 0
KST3 260309Z 19012KT 28/03 A299 RMK A01 T02770027  RH  020%=      5-min Rain = 0
KST3 260310Z 19015KT 28/03 A299 RMK A01 T02770027  RH  020%=      5-min Rain = 0
KST3 260311Z 18015KT 28/03 A299 RMK A01 T02760026  RH  020%=      5-min Rain = 0
KST3 260312Z 19014KT 28/03 A299 RMK A01 T02770026  RH  020%=      5-min Rain = 0
KST3 260313Z 19013KT 28/03 A299 RMK A01 T02770025  RH  020%=      5-min Rain = 0
KST3 260314Z 18014G19KT 28/03 A299 RMK A01 T02770025  RH  020%=      5-min Rain = 0
KST3 260315Z 18014KT 28/03 A299 RMK A01 T02770025  RH  020%=      5-min Rain = 0
KST3 260316Z 19013G18KT 28/03 A299 RMK A01 T02770025  RH  020%=      5-min Rain = 0
KST3 260317Z 18016KT 28/02 A299 RMK A01 T02760024  RH  020%=      5-min Rain = 0
KST3 260318Z 19013KT 28/02 A299 RMK A01 T02770024  RH  020%=      5-min Rain = 0
KST3 260319Z 18013G18KT 28/02 A299 RMK A01 T02760023  RH  020%=      5-min Rain = 0
KST3 260320Z 19012KT 28/02 A299 RMK A01 T02760024  RH  020%=      5-min Rain = 0
KST3 260321Z 18013KT 28/02 A299 RMK A01 T02750023  RH  020%=      5-min Rain = 0
KST3 260322Z 19014G19KT 27/02 A299 RMK A01 T02740024  RH  020%=      5-min Rain = 0
KST3 260323Z 18017KT 27/02 A299 RMK A01 T02740022  RH  020%=      5-min Rain = 0
KST3 260324Z 19013KT 28/02 A299 RMK A01 T02750022  RH  020%=      5-min Rain = 0
KST3 260325Z 19014KT 28/02 A299 RMK A01 T02750022  RH  020%=      5-min Rain = 0
KST3 260326Z 18014KT 28/02 A299 RMK A01 T02750022  RH  020%=      5-min Rain = 0
KST3 260327Z 18013KT 27/02 A299 RMK A01 T02740022  RH  020%=      5-min Rain = 0
KST3 260328Z 18012KT 27/02 A299 RMK A01 T02740022  RH  020%=      5-min Rain = 0
KST3 260329Z 18014KT 27/02 A299 RMK A01 T02730022  RH  020%=      5-min Rain = 0
KST3 260330Z 18016G21KT 27/02 A299 RMK A01 T02730021  RH  020%=      5-min Rain = 0
KST3 260331Z 18016KT 27/02 A299 RMK A01 T02730021  RH  020%=      5-min Rain = 0
KST3 260332Z 18015KT 27/02 A299 RMK A01 T02740021  RH  019%=      5-min Rain = 0
KST3 260333Z 18013KT 27/02 A299 RMK A01 T02730020  RH  019%=      5-min Rain = 0
KST3 260334Z 18015KT 27/02 A299 RMK A01 T02730021  RH  020%=      5-min Rain = 0
KST3 260335Z 19013KT 27/02 A299 RMK A01 T02730020  RH  020%=      5-min Rain = 0
KST3 260336Z 18013KT 27/02 A299 RMK A01 T02730020  RH  020%=      5-min Rain = 0
KST3 260337Z 19014KT 27/02 A299 RMK A01 T02730020  RH  019%=      5-min Rain = 0
KST3 260338Z 19012KT 27/02 A2991 RMK A01 T02730020  RH  019%=      5-min Rain = 0
KST3 260339Z 18014KT 27/02 A2991 RMK A01 T02720019  RH  019%=      5-min Rain = 0
KST3 260340Z 19014G19KT 27/02 A2991 RMK A01 T02720019  RH  020%=      5-min Rain = 0
KST3 260341Z 19014KT 27/02 A2991 RMK A01 T02710019  RH  019%=      5-min Rain = 0
KST3 260342Z 19012KT 27/02 A2991 RMK A01 T02710019  RH  019%=      5-min Rain = 0
KST3 260343Z 19012KT 27/02 A2991 RMK A01 T02710019  RH  019%=      5-min Rain = 0
KST3 260344Z 19014KT 27/02 A2991 RMK A01 T02700019  RH  020%=      5-min Rain = 0
KST3 260345Z 19014KT 27/02 A2991 RMK A01 T02700019  RH  020%=      5-min Rain = 0
KST3 260346Z 19013KT 27/02 A2991 RMK A01 T02700018  RH  019%=      5-min Rain = 0
KST3 260347Z 19012KT 27/02 A2991 RMK A01 T02700018  RH  020%=      5-min Rain = 0
KST3 260348Z 19012KT 27/02 A2991 RMK A01 T02700018  RH  020%=      5-min Rain = 0
KST3 260349Z 19013KT 27/02 A2991 RMK A01 T02690017  RH  020%=      5-min Rain = 0
KST3 260350Z 18013KT 27/02 A2991 RMK A01 T02680017  RH  020%=      5-min Rain = 0
KST3 260351Z 19012KT 27/02 A2991 RMK A01 T02680017  RH  020%=      5-min Rain = 0
KST3 260352Z 19012KT 27/02 A2991 RMK A01 T02680017  RH  020%=      5-min Rain = 0
KST3 260353Z 19013KT 27/02 A2991 RMK A01 T02670017  RH  020%=      5-min Rain = 0
KST3 260354Z 19012KT 27/02 A2991 RMK A01 T02680017  RH  020%=      5-min Rain = 0
KST3 260355Z 19012KT 27/02 A2991 RMK A01 T02680017  RH  020%=      5-min Rain = 0
KST3 260356Z 19012KT 27/02 A2991 RMK A01 T02670017  RH  020%=      5-min Rain = 0
KST3 260357Z 19010KT 27/02 A2991 RMK A01 T02660017  RH  020%=      5-min Rain = 0
KST3 260358Z 19010KT 27/02 A2991 RMK A01 T02650017  RH  020%=      5-min Rain = 0
KST3 260359Z 19011KT 26/02 A2991 RMK A01 T02640017  RH  020%=      5-min Rain = 0
KST3 260400Z 19011KT 26/02 A2991 RMK A01 T02640017  RH  020%=      5-min Rain = 0
KST3 260401Z 19010KT 26/02 A2991 RMK A01 T02620017  RH  020%=      5-min Rain = 0
KST3 260402Z 19012KT 26/02 A2991 RMK A01 T02620017  RH  020%=      5-min Rain = 0
KST3 260403Z 19011KT 26/02 A2991 RMK A01 T02610017  RH  020%=      5-min Rain = 0
KST3 260404Z 19011KT 26/02 A2991 RMK A01 T02620017  RH  020%=      5-min Rain = 0
KST3 260405Z 19011KT 26/02 A2991 RMK A01 T02620017  RH  020%=      5-min Rain = 0
KST3 260406Z 19011KT 26/02 A2991 RMK A01 T02620017  RH  020%=      5-min Rain = 0
KST3 260407Z 19010KT 26/02 A2991 RMK A01 T02610017  RH  020%=      5-min Rain = 0
KST3 260408Z 19010KT 26/02 A2991 RMK A01 T02600016  RH  020%=      5-min Rain = 0
KST3 260409Z 19009KT 26/02 A2991 RMK A01 T02590017  RH  021%=      5-min Rain = 0
KST3 260410Z 19010KT 26/02 A2991 RMK A01 T02580016  RH  021%=      5-min Rain = 0
KST3 260411Z 20009KT 26/02 A2991 RMK A01 T02580017  RH  021%=      5-min Rain = 0
KST3 260412Z 19009KT 26/02 A2991 RMK A01 T02570016  RH  021%=      5-min Rain = 0
KST3 260413Z 20009KT 26/02 A2991 RMK A01 T02550016  RH  021%=      5-min Rain = 0
KST3 260414Z 20009KT 25/02 A2991 RMK A01 T02540016  RH  021%=      5-min Rain = 0
KST3 260415Z 20010KT 25/02 A2991 RMK A01 T02530016  RH  021%=      5-min Rain = 0
KST3 260416Z 20010KT 25/02 A2991 RMK A01 T02530016  RH  021%=      5-min Rain = 0
KST3 260417Z 20009KT 25/02 A2992 RMK A01 T02540016  RH  021%=      5-min Rain = 0
KST3 260418Z 19011KT 25/02 A2992 RMK A01 T02540016  RH  021%=      5-min Rain = 0
KST3 260419Z 20010KT 25/02 A2992 RMK A01 T02540016  RH  021%=      5-min Rain = 0
KST3 260420Z 19009KT 25/02 A2992 RMK A01 T02540016  RH  021%=      5-min Rain = 0
KST3 260421Z 19010KT 25/02 A2992 RMK A01 T02540015  RH  021%=      5-min Rain = 0
KST3 260422Z 20009KT 25/02 A2992 RMK A01 T02530015  RH  021%=      5-min Rain = 0
KST3 260423Z 19009KT 25/02 A2992 RMK A01 T02530015  RH  021%=      5-min Rain = 0
KST3 260424Z 19009KT 25/02 A2992 RMK A01 T02530016  RH  021%=      5-min Rain = 0
KST3 260425Z 19009KT 25/02 A2992 RMK A01 T02520015  RH  021%=      5-min Rain = 0
KST3 260426Z 19009KT 25/02 A2992 RMK A01 T02510015  RH  021%=      5-min Rain = 0
KST3 260427Z 20010KT 25/02 A2992 RMK A01 T02510015  RH  021%=      5-min Rain = 0
KST3 260428Z 20010KT 25/02 A2992 RMK A01 T02510015  RH  021%=      5-min Rain = 0
KST3 260429Z 19010G15KT 25/02 A2992 RMK A01 T02500015  RH  021%=      5-min Rain = 0
KST3 260430Z 20008KT 25/02 A2992 RMK A01 T02510015  RH  021%=      5-min Rain = 0
KST3 260431Z 20009KT 25/02 A2992 RMK A01 T02510015  RH  021%=      5-min Rain = 0
KST3 260432Z 20009KT 25/02 A2992 RMK A01 T02490015  RH  022%=      5-min Rain = 0
KST3 260433Z 20007KT 25/02 A2992 RMK A01 T02480015  RH  022%=      5-min Rain = 0
KST3 260434Z 20009KT 25/02 A2992 RMK A01 T02470015  RH  022%=      5-min Rain = 0
KST3 260435Z 20008KT 25/02 A2992 RMK A01 T02460015  RH  022%=      5-min Rain = 0
KST3 260436Z 20009KT 25/02 A2992 RMK A01 T02450016  RH  022%=      5-min Rain = 0
KST3 260437Z 20009KT 24/02 A2992 RMK A01 T02440015  RH  022%=      5-min Rain = 0
KST3 260438Z 20009KT 24/02 A2992 RMK A01 T02440016  RH  022%=      5-min Rain = 0
KST3 260439Z 20009KT 24/02 A2992 RMK A01 T02440016  RH  022%=      5-min Rain = 0
KST3 260440Z 20009KT 24/02 A2992 RMK A01 T02440016  RH  022%=      5-min Rain = 0
KST3 260441Z 20009KT 24/02 A2992 RMK A01 T02430016  RH  023%=      5-min Rain = 0
KST3 260442Z 20009KT 24/02 A2992 RMK A01 T02430015  RH  023%=      5-min Rain = 0
KST3 260443Z 19009KT 24/02 A2992 RMK A01 T02430015  RH  022%=      5-min Rain = 0
KST3 260444Z 20009KT 24/02 A2992 RMK A01 T02430015  RH  022%=      5-min Rain = 0
KST3 260445Z 20010KT 24/02 A2992 RMK A01 T02430015  RH  022%=      5-min Rain = 0
KST3 260446Z 19010KT 24/02 A2992 RMK A01 T02440015  RH  022%=      5-min Rain = 0
KST3 260447Z 19009KT 25/02 A2992 RMK A01 T02460015  RH  022%=      5-min Rain = 0
KST3 260448Z 20009KT 25/02 A2992 RMK A01 T02460015  RH  022%=      5-min Rain = 0
KST3 260449Z 20009KT 25/02 A2992 RMK A01 T02470015  RH  022%=      5-min Rain = 0
KST3 260450Z 20011KT 25/02 A2992 RMK A01 T02470015  RH  022%=      5-min Rain = 0
KST3 260451Z 20010KT 25/02 A2992 RMK A01 T02480015  RH  022%=      5-min Rain = 0
KST3 260452Z 20010KT 25/02 A2992 RMK A01 T02470015  RH  022%=      5-min Rain = 0
KST3 260453Z 20011KT 25/02 A2992 RMK A01 T02470015  RH  022%=      5-min Rain = 0
KST3 260454Z 20010KT 25/01 A2992 RMK A01 T02470014  RH  022%=      5-min Rain = 0
KST3 260455Z 20010KT 25/02 A2992 RMK A01 T02470015  RH  022%=      5-min Rain = 0
KST3 260456Z 20011KT 25/01 A2992 RMK A01 T02460014  RH  022%=      5-min Rain = 0
KST3 260457Z 20010KT 25/01 A2992 RMK A01 T02470014  RH  022%=      5-min Rain = 0
KST3 260458Z 20011KT 25/01 A2992 RMK A01 T02470014  RH  022%=      5-min Rain = 0
KST3 260459Z 20011G16KT 25/01 A2992 RMK A01 T02470014  RH  022%=      5-min Rain = 0

Page generated in 0.122 seconds.